[{"header": {"dx": 0.06612293990616946, "dy": 0.0552356325346848, "nx": 98, "ny": 59, "la1": 35.046912555036876, "la2": 31.78801023549047, "lo1": -121.43107172385933, "lo2": -114.95102361305473, "refTime": "2026041621", "parameterCategory": 1, "parameterNumber": 2}, "data": [13.32, 13.32, 13.32, 13.36, 13.03, 12.65, 12.63, 12.52, 12.45, 12.27, 12.16, 11.5, 12.7, 12.21, 11.76, 11.49, 11.58, 11.18, 11.62, 11.2, 4.1, 0.0, 0.0, 0.0, -2.71, -5.2, -7.24, -7.51, -6.21, -6.21, -7.51, -5.8, -3.04, 0.0, 2.49, 4.4, 5.86, 5.86, 7.33, 8.55, 8.8, 10.21, 10.88, 11.44, 14.7, 17.39, 21.31, 24.37, 18.89, 13.75, 14.28, 14.75, 15.2, 15.65, 15.62, 15.62, 15.56, 15.56, 15.56, 15.12, 14.99, 14.55, 14.36, 13.92, 14.15, 14.21, 14.64, 14.42, 14.33, 15.18, 15.36, 14.84, 14.84, 14.84, 14.73, 14.73, 14.18, 13.99, 14.58, 14.55, 14.25, 13.41, 12.96, 11.87, 6.7, 5.2, 10.8, 11.18, 11.18, 11.06, 11.2, 5.28, 2.72, 2.89, 4.24, 6.95, 6.87, 4.1, 12.96, 13.32, 13.32, 13.0, 13.03, 12.99, 12.31, 12.52, 12.16, 12.09, 11.35, 12.27, 11.64, 11.2, 12.04, 11.78, 10.56, 11.98, 11.95, 11.28, 9.48, 0.0, 0.0, 0.0, -2.1, -5.0, -5.2, -4.48, -6.21, -6.44, -5.31, -5.15, -2.45, 0.0, 1.32, 4.0, 3.17, 4.44, 5.21, 7.27, 10.19, 11.64, 10.99, 12.94, 17.19, 21.49, 24.32, 19.73, 13.72, 14.71, 14.72, 15.2, 15.2, 15.2, 15.2, 15.62, 15.62, 15.18, 15.56, 15.12, 14.99, 14.55, 14.4, 14.36, 14.4, 14.64, 14.64, 14.64, 14.64, 15.51, 15.87, 15.61, 15.55, 14.69, 14.61, 14.42, 14.42, 13.99, 14.58, 14.55, 14.25, 13.41, 12.96, 11.87, 6.7, 5.2, 10.8, 11.18, 11.18, 11.06, 11.2, 5.28, 2.72, 2.89, 4.24, 6.95, 6.87, 4.1, 12.96, 12.96, 13.32, 13.0, 13.0, 13.34, 12.65, 12.57, 12.16, 11.8, 11.72, 10.51, 11.64, 11.02, 10.68, 11.03, 11.03, 11.28, 11.56, 12.46, 9.67, 6.94, 0.0, 0.0, -3.36, -3.98, -3.98, -3.98, -4.15, -4.32, -2.89, -2.5, 0.0, 0.0, 2.33, 3.32, 2.98, 4.0, 3.99, 6.16, 8.02, 11.8, 14.7, 17.3, 19.72, 19.92, 16.85, 13.28, 14.71, 15.2, 15.2, 15.2, 15.2, 15.2, 14.75, 15.2, 15.18, 15.62, 15.56, 15.56, 15.01, 14.55, 14.55, 14.4, 14.84, 14.84, 14.84, 15.31, 15.27, 15.71, 15.85, 15.82, 15.34, 15.05, 14.6, 14.6, 15.02, 15.02, 14.14, 14.69, 14.23, 13.41, 12.96, 12.07, 3.68, 0.0, 5.0, 10.38, 11.06, 11.87, 7.93, 3.2, 2.89, 2.89, 5.81, 8.05, 7.54, 3.04, 12.96, 12.96, 12.96, 13.0, 13.0, 12.67, 12.99, 12.92, 12.22, 11.8, 11.44, 11.16, 12.03, 10.48, 10.55, 10.73, 10.73, 11.34, 11.03, 11.34, 10.21, 8.94, 3.53, 0.0, -2.37, -3.14, -3.25, -1.93, -1.93, 0.0, 0.0, 0.0, 0.0, 3.79, 4.65, 3.98, 3.25, 4.23, 4.28, 6.64, 10.47, 13.59, 15.59, 15.14, 13.97, 13.05, 13.55, 14.16, 14.71, 14.75, 14.75, 15.2, 14.75, 14.75, 14.75, 14.75, 15.2, 15.65, 15.62, 15.62, 15.12, 15.11, 14.55, 14.55, 14.55, 14.99, 15.45, 15.34, 17.13, 17.53, 16.73, 15.53, 15.49, 14.6, 14.27, 13.86, 14.75, 15.2, 15.14, 13.79, 13.33, 12.89, 11.12, 9.67, 11.18, 8.22, 8.53, 10.79, 10.96, 7.69, 3.3, 3.2, 3.01, 4.24, 6.87, 8.73, 7.54, 1.55, 12.96, 12.96, 12.96, 12.64, 13.0, 13.0, 12.99, 12.66, 12.22, 12.09, 11.8, 10.88, 11.64, 11.2, 10.4, 10.4, 10.55, 10.4, 10.4, 10.99, 11.26, 9.77, 6.97, 0.0, 0.0, 0.0, 0.0, 0.0, 0.0, 0.0, 1.76, 3.53, 5.2, 6.94, 8.58, 5.31, 5.64, 6.2, 6.19, 7.31, 9.42, 10.75, 10.85, 11.97, 12.93, 13.25, 13.99, 14.16, 14.62, 15.07, 14.64, 14.19, 14.28, 14.73, 14.73, 14.73, 15.18, 15.65, 15.65, 15.2, 14.75, 14.28, 14.21, 14.65, 14.55, 16.44, 16.76, 16.15, 17.66, 19.3, 18.77, 17.28, 17.62, 17.2, 15.65, 12.96, 13.86, 14.3, 13.86, 13.41, 12.46, 6.67, 1.98, 1.84, 4.15, 8.22, 10.8, 9.3, 6.0, 3.69, 3.1, 2.81, 2.72, 5.8, 8.44, 9.48, 6.43, 1.55, 12.61, 12.96, 12.96, 12.64, 12.64, 13.0, 12.99, 12.66, 12.26, 12.45, 11.87, 11.23, 11.25, 10.79, 10.8, 10.4, 10.0, 10.2, 9.43, 9.81, 9.52, 9.53, 6.9, 2.63, 0.0, 0.0, 0.0, 0.0, 0.0, 0.0, 1.39, 4.05, 6.58, 9.1, 10.24, 9.8, 6.9, 6.2, 1.89, 2.56, 5.6, 9.16, 11.53, 13.02, 13.57, 14.31, 14.37, 13.94, 13.99, 14.03, 13.59, 13.59, 13.62, 14.19, 14.65, 14.65, 14.73, 14.73, 15.2, 14.75, 13.86, 13.38, 14.64, 15.09, 15.85, 16.73, 16.91, 15.69, 15.91, 18.43, 20.51, 18.49, 17.11, 18.21, 18.25, 16.54, 13.41, 12.96, 12.79, 12.71, 2.93, -0.0, -0.0, 1.44, 1.44, 2.82, 4.75, 4.71, 3.58, 3.1, 1.43, 2.91, 4.71, 7.54, 9.84, 10.3, 5.11, -0.0, 12.61, 12.61, 12.96, 12.64, 12.64, 12.64, 12.66, 12.99, 12.6, 12.16, 11.87, 10.36, 11.25, 10.29, 11.6, 10.4, 10.55, 10.8, 10.4, 9.3, 9.9, 11.58, 11.53, 6.94, 3.96, 5.2, 10.4, 8.53, 0.0, 0.0, 2.19, 3.87, 6.95, 8.21, 10.0, 11.6, 10.01, 13.41, -11.62, -4.6, 0.0, 10.79, 13.88, 15.2, 15.65, 15.2, 16.09, 15.2, 13.81, 13.77, 14.3, 13.86, 14.3, 14.71, 14.27, 13.86, 14.3, 14.3, 14.3, 13.86, 13.38, 13.28, 15.07, 15.82, 15.98, 15.36, 15.19, 14.17, 14.38, 16.6, 19.09, 18.52, 16.41, 16.35, 16.71, 16.86, 14.99, 13.15, 12.45, -0.0, -3.68, -3.19, -0.0, -0.0, 1.71, 1.55, 3.36, 5.02, 3.47, 3.25, 2.91, 4.24, 6.65, 9.48, 10.91, 8.3, 3.44, -0.0, 12.3, 12.3, 12.3, 12.64, 12.64, 12.64, 12.66, 12.33, 12.29, 11.92, 11.58, 10.09, 10.65, 10.37, 11.5, 10.23, 10.94, 11.5, 10.8, 10.04, 10.4, 10.68, 11.79, 13.5, 13.86, 10.8, 8.53, 8.85, 11.28, 9.3, 4.15, 4.32, 5.75, 8.38, 10.21, 10.7, 10.75, -0.0, -6.94, -5.2, -0.0, 8.53, 11.6, 11.88, 12.65, 13.39, 13.99, 15.12, 13.86, 13.96, 12.08, 13.23, 13.7, 13.82, 13.86, 13.86, 13.86, 13.86, 13.41, 12.96, 12.48, 13.37, 15.02, 14.44, 13.01, 13.59, 14.47, 14.21, 13.89, 15.12, 17.28, 18.17, 16.06, 15.65, 15.14, 14.4, 13.57, 12.72, 11.6, -0.0, -8.66, -6.94, -3.82, -0.0, -0.0, 2.2, 3.68, 4.24, 3.56, 3.56, 3.56, 5.11, 9.48, 10.65, 10.3, 5.6, 1.5, -0.0, 12.3, 12.3, 12.3, 12.3, 12.3, 12.64, 12.33, 12.33, 12.29, 11.96, 11.33, 9.8, 10.75, 9.48, 10.03, 10.12, 10.41, 10.66, 11.02, 10.18, 9.86, 10.8, 11.14, 11.76, 12.02, 8.85, 5.06, 6.44, 11.21, 10.73, 9.67, 12.07, 12.52, 11.45, 11.06, 10.28, 10.52, 3.98, 2.28, 4.15, 7.51, 7.51, 8.85, 10.47, 11.9, 10.94, 13.1, 14.4, 13.58, 13.59, 13.48, 12.3, 13.07, 13.72, 13.82, 13.86, 13.86, 12.93, 12.48, 12.48, 12.52, 14.9, 12.89, 10.39, 10.77, 13.59, 15.59, 15.16, 14.42, 14.62, 16.09, 16.54, 16.51, 15.61, 14.75, 14.3, 13.72, 12.71, 9.8, -0.0, -7.0, -10.47, -11.44, -9.8, -3.04, -0.0, -0.0, -0.0, -0.0, 2.54, 4.81, 6.67, 9.17, 9.48, 8.59, 3.44, 1.44, 1.5, 11.99, 12.3, 12.3, 12.3, 12.3, 12.3, 11.99, 12.01, 11.67, 11.96, 11.36, 10.43, 9.77, 9.46, 10.3, 9.26, 9.17, 9.17, 9.76, 8.82, 7.9, 7.9, 8.82, 10.4, 10.6, 2.71, 4.4, 6.97, 10.73, 11.84, 10.41, -0.0, 2.72, 4.48, 8.22, 9.97, 9.2, 4.74, 6.45, 8.01, 8.53, 10.61, 9.82, 10.09, 9.86, 9.76, 10.59, 11.72, 13.2, 13.99, 13.62, 13.62, 13.57, 13.44, 13.67, 14.26, 13.86, 12.92, 12.35, 12.31, 14.64, 9.61, 7.8, 8.11, 10.77, 13.95, 15.99, 15.36, 13.75, 14.3, 14.5, 15.08, 15.36, 15.38, 15.09, 13.75, 13.41, 9.67, -0.0, -0.0, -0.0, -4.01, -15.36, -15.34, -13.44, -11.16, -9.8, -6.2, -0.0, -0.0, 4.1, 5.6, 6.44, 7.19, 7.19, 3.44, 1.55, 1.55, 11.62, 11.62, 11.92, 11.92, 12.3, 12.3, 11.99, 11.7, 11.99, 11.67, 11.36, 10.75, 10.43, 10.69, 11.95, 10.63, 11.42, 11.07, 12.27, 13.19, 13.74, 13.02, 12.51, 11.2, -0.0, -0.0, -0.0, 2.39, 5.7, 8.85, 7.24, 2.7, 2.7, 5.46, 6.95, 9.97, 9.08, 7.44, 7.65, 9.88, 11.12, 10.94, 9.86, 9.42, 8.22, 7.56, 8.53, 10.41, 10.79, 11.16, 11.64, 12.03, 12.7, 12.11, 12.87, 13.23, 15.11, 13.86, 10.46, 13.01, 4.23, 4.02, 5.56, 7.63, 9.66, 13.23, 15.38, 16.24, 15.16, 12.71, 12.98, 13.19, 13.97, 14.13, 13.89, 11.99, 11.62, -0.0, -3.47, -0.0, 2.98, 3.07, -0.0, -16.99, -16.09, -14.75, -15.2, -15.2, -14.3, -9.48, -0.0, -0.0, 2.45, 6.44, 5.4, 3.56, 1.83, 1.83, 11.29, 11.62, 11.92, 11.92, 12.3, 12.3, 12.01, 11.39, 11.99, 11.67, 11.36, 10.75, 11.06, 11.63, 12.37, 12.03, 10.91, 11.57, 12.8, 13.49, 14.11, 14.66, 14.3, 15.55, 11.5, 6.94, -0.0, 2.06, 4.8, 5.95, 6.71, 5.95, 5.95, 6.58, 7.9, 8.15, 8.07, 8.75, 9.67, 10.8, 11.2, 10.04, 8.22, 7.26, 5.52, 5.1, 7.54, 7.82, 8.1, 7.69, 7.93, 8.51, 9.66, 9.0, 7.14, 7.14, 12.07, 18.52, 3.82, -6.2, -0.0, 3.19, 5.2, 5.98, 7.2, 10.39, 13.63, 17.64, 18.91, 16.93, 12.74, 10.3, 9.71, 9.73, 6.67, 0.0, -11.62, -12.27, -8.68, -0.0, 8.93, 7.2, -0.0, -16.96, -18.78, -18.96, -17.1, -14.75, -14.75, -13.44, -10.41, -3.68, -0.0, 2.82, 4.65, 2.13, 2.13, 1.83, 11.29, 11.29, 11.29, 11.58, 11.96, 11.96, 11.66, 11.7, 11.7, 11.38, 11.36, 11.36, 11.36, 11.67, 13.09, 13.75, 13.82, 13.51, 13.1, 13.63, 14.25, 14.74, 15.18, 14.69, 14.13, 13.44, 12.45, 9.17, 3.82, 6.95, 7.9, 7.15, 6.87, 7.27, 7.27, 7.81, 7.74, 9.3, 9.77, 10.0, 10.16, 8.22, 6.5, 5.46, 4.6, 4.8, 5.98, 5.4, 5.8, 6.0, 5.08, 5.45, 4.52, 2.98, 2.4, 5.04, 7.92, 20.39, 7.2, -3.82, -0.0, 3.05, 4.49, 4.15, 5.8, 7.47, 10.0, 11.87, 15.09, 16.03, 0.0, -6.64, -2.35, 0.0, -2.39, -9.67, -14.75, -16.09, -16.09, 16.54, 15.27, 9.17, -0.0, -0.0, -5.37, -18.78, -18.26, -16.96, -15.87, -14.3, -13.86, -10.4, -5.0, -0.0, -0.0, -0.0, 2.54, 2.2, 11.29, 11.29, 11.58, 11.58, 11.96, 11.96, 11.66, 11.7, 12.01, 11.7, 11.06, 11.06, 11.06, 11.67, 12.56, 13.3, 14.29, 14.73, 14.9, 14.64, 14.47, 14.2, 14.74, 14.75, 14.29, 14.28, 13.81, 13.72, 13.01, 11.87, 9.6, 7.59, 7.9, 6.3, 6.95, 6.95, 6.95, 8.55, 9.4, 9.6, 7.59, 5.7, 6.44, 5.7, 4.4, 4.6, 3.7, 4.15, 4.32, 4.65, 4.65, 4.48, 2.37, 2.37, 2.45, 4.93, 11.06, 18.24, 19.92, -0.0, -0.0, 1.42, 3.24, 3.33, 3.47, 4.86, 5.86, 6.74, 11.37, 12.08, -10.6, -18.6, -12.96, -6.42, -8.94, -14.75, -16.54, -12.33, -0.0, 12.01, 14.13, 13.23, 8.68, -0.0, 2.57, -0.0, -17.88, -17.97, -17.2, -16.31, -14.3, -11.18, -10.6, -11.2, -5.6, -0.0, -0.0, -0.0, 10.89, 11.29, 11.58, 11.58, 11.96, 12.26, 11.96, 11.66, 12.01, 11.7, 11.38, 11.06, 11.67, 11.67, 12.27, 12.8, 14.13, 14.82, 15.23, 15.21, 14.64, 14.34, 14.13, 14.26, 14.29, 13.86, 13.86, 13.86, 13.41, 13.41, 12.27, 9.55, 8.94, 7.27, 7.27, 6.42, 7.59, 7.87, 10.0, 7.68, 5.29, 4.8, 5.46, 5.46, 4.4, 3.65, 1.93, 3.82, 3.98, 5.0, 5.2, 2.71, 2.6, 5.21, 5.46, 7.59, 10.4, 13.27, 15.46, 7.08, 1.97, 1.61, 3.36, 3.47, 3.58, 4.18, 4.54, 7.6, 11.38, 17.99, 20.56, -12.87, -17.11, -10.73, -13.41, -0.0, 6.47, 9.92, 12.01, 13.26, 14.51, 15.19, 14.53, 13.41, 12.96, 3.69, -0.0, -16.09, -16.09, -16.54, -16.99, -13.41, -11.62, -11.2, -11.99, -0.0, -0.0, -0.0, 10.89, 11.29, 11.58, 11.58, 11.96, 12.26, 11.96, 11.96, 11.36, 11.38, 11.38, 11.38, 11.67, 11.67, 11.67, 12.56, 13.66, 14.4, 15.07, 15.14, 14.72, 14.48, 14.31, 14.53, 14.62, 14.73, 13.86, 13.86, 13.41, 13.41, 13.41, 12.0, 9.97, 9.2, 7.27, 5.36, 7.27, 7.81, 8.38, 4.6, 2.97, 2.97, 3.82, 1.93, 1.93, 3.49, 3.65, 3.82, 3.82, 3.82, 5.0, 5.2, 6.45, 5.95, 7.81, 9.54, 10.08, 10.79, 11.33, 9.09, 4.9, 5.98, 4.32, 4.48, 5.4, 4.81, 7.19, 10.75, 13.39, 18.66, 19.92, -8.4, -15.62, -18.21, -0.0, 8.2, 11.31, 13.28, 15.01, 15.72, 16.75, 17.39, 16.99, 13.99, -8.53, -11.18, -0.0, -0.0, -0.0, -9.8, -15.65, -12.96, -7.19, -3.25, -3.04, -0.0, -0.0, -0.0, 10.57, 10.57, 11.58, 11.58, 11.58, 12.26, 12.26, 11.96, 11.66, 11.68, 11.38, 11.38, 11.99, 11.99, 11.67, 12.56, 13.09, 13.58, 14.03, 14.67, 14.73, 14.3, 14.16, 13.54, 14.17, 14.29, 14.73, 14.75, 14.75, 14.27, 13.41, 12.96, 11.18, 10.38, 6.87, 6.11, 5.72, 5.52, 4.6, 3.65, 1.93, 1.11, 1.69, 2.17, 3.11, 4.4, 5.29, 5.29, 3.82, 4.6, 4.6, 4.8, 6.71, 7.59, 8.58, 9.2, 9.55, 9.2, 9.42, 10.12, 9.77, 8.94, 8.93, 7.59, 7.59, 6.17, 8.22, 9.3, 12.87, 17.2, 15.49, -11.45, -17.88, -0.0, 6.42, 11.45, 13.59, 16.01, 16.75, 16.79, 16.8, 16.7, 16.99, 10.75, -4.52, -11.62, -8.53, -0.0, -0.0, -0.0, -12.27, -10.73, -3.96, -0.0, -0.0, -0.0, -0.0, -0.0, 10.57, 10.57, 11.58, 11.58, 11.58, 12.26, 12.26, 11.96, 11.66, 11.36, 11.7, 11.38, 11.99, 11.99, 11.67, 12.22, 13.09, 13.66, 14.03, 14.15, 14.22, 14.03, 13.99, 13.1, 13.29, 14.24, 15.12, 15.12, 14.99, 14.97, 14.47, 13.25, 12.47, 11.12, 10.05, 7.27, 4.4, 4.6, 3.65, 1.93, 1.62, 1.62, 1.93, 2.02, 4.6, 6.42, 7.59, 6.17, 2.49, 2.49, 4.6, 6.17, 6.17, 6.17, 6.17, 7.27, 8.23, 9.2, 9.58, 10.0, 11.45, 10.79, 10.18, 9.6, 9.6, 6.95, 7.51, 9.2, 11.91, 15.65, 20.12, 18.42, 14.7, 13.86, 11.86, 12.9, 15.16, 16.79, 17.82, 17.52, 16.38, 17.13, 17.74, 0.0, -11.87, -10.01, -11.12, -7.78, -0.0, 2.81, 2.81, -2.13, -2.82, -0.0, -0.0, 1.83, -0.0, -0.0, 10.57, 10.57, 10.89, 11.29, 11.58, 11.58, 12.26, 11.96, 11.96, 11.66, 11.39, 11.39, 11.99, 11.99, 11.67, 13.74, 11.96, 13.09, 13.3, 13.62, 14.22, 14.73, 13.53, 14.42, 13.01, 13.37, 12.3, 13.15, 12.38, 12.79, 12.62, 12.42, 12.22, 12.07, 11.09, 9.6, 7.27, 6.7, 5.75, 2.6, 2.7, 3.25, 4.15, 4.15, 6.45, 7.59, 8.38, 4.6, 2.02, 2.02, 3.82, 3.82, 5.29, 5.29, 5.29, 6.42, 7.27, 8.73, 10.04, 10.4, 11.03, 11.4, 10.6, 6.95, 4.4, 4.83, 6.64, 9.45, 10.68, 14.22, 17.35, 18.18, 20.18, 21.35, 15.99, 15.1, 15.71, 16.29, 16.7, 16.99, 16.58, 17.3, 16.09, 12.52, -0.0, -8.05, -10.73, -10.79, -8.05, -0.0, 2.35, -0.0, -1.71, -1.44, -0.0, -0.0, -0.0, -0.0, 10.57, 10.57, 10.89, 10.89, 11.58, 11.58, 11.58, 11.58, 11.96, 11.66, 11.7, 11.39, 11.7, 11.99, 11.99, 11.96, 11.63, 11.92, 12.84, 13.26, 14.85, 13.48, 13.34, 13.83, 12.23, 11.41, 11.38, 11.16, 11.28, 10.12, 8.85, 10.73, 11.45, 12.07, 11.46, 9.96, 9.96, 8.58, 6.44, 5.29, 4.8, 5.32, 5.54, 5.43, 5.75, 8.22, 5.29, 2.02, -0.0, -0.0, 1.62, 3.25, 3.39, 3.53, 4.4, 5.21, 6.2, 7.59, 9.1, 11.18, 11.02, 10.41, 7.59, 2.6, 3.25, 4.6, 7.27, 9.7, 11.21, 12.72, 15.49, 18.26, 22.69, 25.52, 20.92, 16.54, 15.99, 15.97, 16.54, 16.92, 15.57, 16.44, 14.75, 11.99, 8.31, -0.0, -4.24, -9.17, -10.79, -6.44, -2.2, -0.0, -2.13, -2.13, -0.0, -0.0, -0.0, -0.0, 10.13, 10.57, 10.89, 10.89, 11.29, 11.29, 11.58, 11.58, 11.96, 11.96, 11.7, 11.39, 11.7, 11.99, 11.99, 12.27, 12.22, 11.92, 10.99, 12.5, 12.87, 12.45, 12.82, 12.45, 12.17, 12.5, 12.56, 11.8, 10.35, 8.22, 8.22, 11.03, 11.62, 11.62, 11.62, 10.96, 10.38, 8.58, 8.58, 6.71, 5.0, 4.4, 2.71, 2.37, 3.68, 4.75, 3.65, -0.0, -0.0, -0.0, 1.39, 2.82, 2.95, 3.07, 2.95, 4.6, 6.71, 7.9, 9.67, 11.02, 10.6, 5.0, -0.0, 2.71, 4.6, 6.7, 7.59, 9.82, 11.33, 12.79, 14.38, 17.39, 22.55, 25.03, 19.52, 16.76, 16.28, 17.13, 16.54, 15.12, 15.27, 15.27, 13.81, 11.99, 12.03, 10.47, 8.05, 2.63, -6.9, -10.04, -7.51, -4.98, -3.47, -3.25, -0.0, -0.0, -0.0, -0.0, 9.87, 10.13, 10.57, 10.89, 11.29, 11.29, 11.29, 11.58, 11.96, 11.66, 11.36, 11.39, 11.39, 11.7, 11.7, 11.99, 12.56, 11.63, 11.63, 11.92, 11.8, 11.81, 11.6, 11.29, 11.29, 12.09, 12.93, 12.14, 11.45, 11.61, 11.84, 11.62, 11.62, 11.62, 11.62, 10.96, 10.79, 10.79, 8.94, 6.71, 3.53, 1.58, -0.0, -0.0, 0.93, 2.6, 1.76, -0.0, -0.0, -0.0, 1.45, 1.52, 1.52, 3.07, 2.95, 4.4, 5.2, 6.94, 9.08, 9.6, 7.27, -0.0, -0.0, 4.15, 5.75, 6.98, 8.22, 9.82, 11.33, 12.81, 13.27, 16.48, 20.47, 24.14, 0.0, 5.6, 10.19, 15.02, 17.88, 15.93, 14.65, 15.69, 14.39, 13.2, 11.64, 10.3, 8.59, 7.93, 2.09, -10.04, -10.35, -9.48, -7.93, -4.52, -0.0, -0.0, -0.0, -0.0, 9.87, 9.87, 9.87, 10.57, 10.89, 11.29, 11.29, 11.29, 11.66, 11.66, 11.36, 11.39, 11.39, 11.7, 11.7, 11.99, 11.99, 11.96, 11.96, 12.51, 12.65, 12.16, 11.34, 10.59, 10.65, 11.01, 11.82, 12.77, 12.22, 12.04, 11.64, 11.28, 11.51, 11.62, 11.62, 11.62, 11.4, 10.79, 10.4, 9.3, 4.32, -0.0, -1.44, -2.28, -1.05, -0.0, -0.0, -1.54, -0.0, -0.0, -0.0, 1.52, 1.52, 1.58, 2.95, 2.95, 2.94, 4.43, 5.8, 4.83, 3.49, 2.02, 2.28, 4.32, 5.75, 6.98, 8.22, 8.59, 10.4, 10.61, 10.65, 13.58, -23.59, -13.86, -7.81, -8.72, -11.6, -10.75, 16.99, 14.79, 12.39, 13.58, 13.58, 12.73, 10.43, 9.8, 8.87, 7.1, 5.99, 5.99, -10.37, -12.72, -10.12, -0.0, -0.0, -0.0, -0.0, -0.0, 9.87, 9.87, 9.87, 10.29, 10.57, 10.89, 11.29, 11.29, 11.66, 11.66, 11.36, 11.39, 11.39, 11.39, 11.7, 11.99, 11.99, 11.99, 12.22, 12.22, 13.01, 12.93, 12.16, 10.96, 10.59, 10.73, 10.96, 11.82, 11.99, 12.08, 11.72, 11.54, 11.13, 10.84, 11.02, 11.18, 11.18, 10.96, 11.4, 10.4, 6.97, -0.0, -1.64, -4.08, -4.72, -3.21, -2.06, -1.84, -1.52, -0.0, -0.0, -0.0, -0.0, 1.33, 2.49, 2.82, 1.02, 2.16, 3.56, 5.2, 3.52, 3.7, 5.0, 3.68, 4.4, 5.99, 7.73, 9.77, 9.48, 9.48, 10.0, 20.46, 25.82, 28.16, 16.54, -13.41, -13.41, -12.96, 14.75, 10.75, 12.39, 11.9, 11.33, 10.12, 10.43, 10.43, 9.6, 8.57, 8.06, 8.53, 3.36, -0.0, 13.86, -0.0, -0.0, -0.0, 1.25, 1.25, 9.87, 9.87, 9.87, 9.87, 10.29, 10.29, 11.29, 11.29, 11.66, 11.66, 11.36, 11.06, 11.39, 11.39, 11.7, 11.99, 11.99, 11.99, 12.29, 12.22, 12.51, 13.01, 12.82, 12.16, 11.34, 10.88, 10.73, 10.73, 11.44, 11.99, 11.73, 12.04, 11.68, 11.13, 10.84, 10.58, 11.18, 11.18, 11.18, 11.4, 10.4, 5.2, -1.84, -5.54, -5.92, -5.69, -5.2, -3.39, -1.93, -1.76, -0.89, -0.0, -0.0, -0.0, 1.28, 1.28, -0.0, -0.0, 1.64, 4.93, 5.0, 4.2, 4.4, 3.39, 3.68, 4.9, 7.24, 8.53, 9.66, 11.03, 13.36, 15.65, 21.84, 27.53, 27.47, 20.49, 17.77, 15.18, 10.12, -0.0, 4.38, 7.13, 7.44, 6.65, 9.44, 9.6, 9.6, 8.85, 9.12, 11.06, 12.78, 12.27, 13.28, 6.6, -0.0, -0.0, 2.72, 2.72, 9.61, 9.61, 9.61, 9.87, 10.29, 10.29, 10.29, 10.69, 10.97, 11.35, 11.36, 11.36, 11.39, 11.39, 11.39, 11.7, 11.99, 11.99, 11.99, 12.22, 12.22, 12.51, 12.45, 12.27, 11.62, 11.16, 10.68, 10.68, 10.68, 10.88, 11.17, 11.6, 11.2, 11.14, 10.62, 10.84, 10.58, 10.73, 11.18, 11.18, 10.96, 10.4, 2.71, -4.15, -6.24, -6.44, -6.16, -3.25, -1.93, -1.76, -1.84, -1.84, -0.0, -0.0, -0.0, -0.0, -0.0, -0.0, 1.28, 3.19, 6.7, 6.7, 3.81, 2.83, 4.15, 5.4, 6.94, 8.24, 10.79, 11.62, 11.88, 14.3, 16.86, 23.81, 26.62, 25.97, 21.87, 17.88, 10.4, -5.2, -4.98, -0.0, 2.5, 5.46, 8.31, 9.09, 9.12, 8.85, 9.71, 11.36, 13.41, 13.76, 13.59, 10.02, 3.36, 3.1, 3.98, 3.98, 9.61, 9.61, 9.61, 9.87, 9.87, 10.29, 10.29, 10.69, 10.69, 11.06, 11.06, 11.06, 11.06, 11.39, 11.39, 11.7, 11.99, 11.99, 11.99, 11.67, 12.22, 12.51, 12.45, 12.37, 12.09, 11.44, 11.16, 10.68, 10.68, 10.68, 10.99, 10.61, 10.73, 10.48, 10.43, 10.4, 10.4, 10.75, 10.58, 10.28, 11.18, 11.62, 11.46, -0.0, -6.42, -7.9, -6.2, -4.18, -2.83, -1.93, -1.92, -1.84, -1.69, -0.79, -0.0, -0.0, -0.0, -0.0, 0.93, 2.95, 4.75, 4.54, 4.4, 2.82, 5.6, 6.45, 7.41, 10.23, 11.12, 12.18, 12.79, 13.37, 14.72, 16.86, 19.58, 26.54, 24.53, 19.47, -9.83, -6.95, -6.45, -5.8, -0.0, 4.1, 5.46, 7.82, 8.29, 10.3, 11.44, 11.64, 11.87, 13.38, 13.95, 11.7, 8.06, 6.95, 6.4, 6.4, 9.61, 9.61, 9.61, 9.87, 9.87, 10.29, 10.29, 10.69, 10.69, 10.69, 11.06, 11.06, 11.36, 11.36, 11.7, 11.39, 11.7, 11.99, 11.67, 11.67, 11.96, 12.26, 11.92, 11.87, 11.8, 11.72, 11.44, 11.34, 10.41, 10.31, 10.31, 10.04, 10.04, 10.15, 10.28, 10.04, 10.4, 10.46, 10.75, 10.58, 11.18, 11.62, 11.06, 10.28, 9.33, -7.59, -7.27, -4.6, -2.83, -2.02, -2.0, -1.92, -1.76, -1.69, -1.63, -0.0, -0.0, -0.0, 0.93, 2.71, 3.21, 4.15, 4.15, 4.99, 5.98, 7.28, 10.02, 10.73, 10.99, 12.58, 14.26, 14.3, 13.41, 13.86, 15.2, 19.67, 23.64, 19.22, -13.86, -9.97, -9.3, -6.76, -4.98, -0.0, 3.96, 5.46, 7.82, 10.18, 11.77, 11.1, 11.64, 12.22, 13.55, 12.7, 11.7, 9.61, 9.33, 9.33, 9.17, 9.17, 9.61, 9.61, 9.87, 10.29, 10.29, 10.29, 10.69, 10.69, 11.06, 11.06, 11.36, 11.36, 11.7, 11.39, 11.39, 11.99, 11.67, 11.67, 11.96, 11.63, 11.92, 11.87, 11.52, 11.23, 11.16, 11.07, 10.79, 10.51, 9.95, 10.04, 10.04, 10.15, 9.78, 9.9, 9.81, 9.77, 10.46, 10.32, 11.02, 11.18, 11.02, 11.21, 10.35, 3.25, -6.01, -5.06, -2.95, -2.02, -2.19, -1.92, -1.84, -1.69, -1.76, -1.76, -0.0, -0.0, 0.97, 2.0, 2.0, 3.21, 4.12, 5.6, 6.92, 9.17, 10.82, 10.73, 10.92, 11.46, 13.82, 14.75, 13.86, 13.38, 14.19, 18.2, 21.9, 19.16, 18.78, -16.99, -11.71, -7.9, -7.82, -4.48, -0.0, 2.2, 6.0, 9.44, 10.75, 11.44, 11.64, 12.45, 13.02, 13.01, 13.26, 13.26, 11.7, 11.7, 9.17, 9.17, 9.61, 9.61, 9.87, 10.29, 10.29, 10.29, 10.69, 10.69, 10.69, 11.06, 11.36, 11.36, 11.36, 11.39, 11.39, 11.7, 11.99, 11.67, 11.96, 11.63, 11.36, 11.33, 11.28, 11.23, 10.88, 11.16, 11.07, 10.41, 10.51, 10.24, 10.04, 9.46, 9.78, 9.56, 9.67, 9.81, 9.77, 9.86, 10.18, 10.73, 11.18, 9.6, 9.09, 8.22, -2.19, -4.18, -3.25, -2.42, -1.11, -1.02, -1.84, -1.84, -1.76, -1.76, -1.62, -0.0, 1.05, 1.01, 1.92, 3.21, 5.4, 6.67, 8.02, 8.85, 9.48, 10.86, 9.77, 9.42, 10.35, 12.72, 15.55, 16.86, 16.54, 19.07, 19.63, 17.43, 18.33, 20.12, -21.01, -12.42, -10.68, -8.85, -5.2, -0.0, 2.72, 8.94, 10.43, 11.8, 12.27, 13.99, 14.44, 13.2, 13.58, 14.71, 13.61, 13.61, 9.17, 9.17, 9.17, 9.61, 9.61, 10.29, 10.29, 10.29, 10.41, 10.41, 10.69, 11.0, 11.36, 11.36, 11.36, 11.39, 11.08, 11.7, 11.7, 11.7, 11.96, 11.36, 11.03, 11.33, 11.28, 10.94, 10.88, 11.16, 11.07, 10.96, 10.41, 10.51, 10.24, 10.04, 9.46, 9.4, 9.52, 9.65, 9.42, 9.8, 9.86, 10.58, 10.73, 10.52, 9.2, 7.24, -0.0, -1.33, -2.23, -2.42, -1.18, -1.02, -1.02, -0.97, -1.92, -1.76, -0.79, -0.0, -0.0, 1.01, 2.19, 4.32, 6.21, 7.72, 8.53, 8.22, 8.22, 9.17, 9.27, 8.18, 7.15, 9.16, 13.58, 21.08, 20.72, 17.88, 16.5, 14.71, 16.54, 19.62, 21.9, -19.22, -12.96, -12.89, -12.87, -11.9, -4.52, 6.4, 11.9, 13.19, 14.13, 14.13, 14.66, 15.09, 13.99, 14.13, 14.91, 14.91, 8.93, 8.93, 9.17, 9.61, 9.61, 9.61, 10.02, 10.02, 10.02, 10.41, 10.71, 11.0, 11.0, 11.36, 11.36, 11.06, 11.08, 11.38, 11.7, 11.38, 11.36, 11.36, 11.03, 11.33, 10.99, 10.69, 10.65, 10.3, 11.6, 9.94, 10.51, 10.41, 10.51, 9.95, 10.04, 9.78, 9.4, 9.52, 9.27, 9.2, 9.2, 10.32, 10.58, 10.73, 9.96, 7.9, 4.15, -0.0, -1.33, -1.23, -1.18, -0.0, -0.0, -0.0, -0.0, -1.69, -0.86, -0.0, -0.0, 0.79, 2.37, 4.32, 7.14, 7.42, 8.22, 8.41, 7.27, 8.93, 9.62, 9.82, 8.12, 8.79, 12.11, 17.33, 28.19, 19.55, 13.41, 11.18, 13.81, 17.48, 17.26, 16.8, 7.0, -14.3, -14.75, -14.75, -13.99, 6.6, 12.27, 13.53, 13.79, 14.23, 14.68, 14.9, 14.28, 14.7, 14.65, 14.65, 8.93, 8.93, 8.93, 9.61, 9.61, 9.61, 10.02, 10.02, 10.02, 10.33, 10.71, 10.71, 11.0, 11.0, 11.36, 11.06, 11.06, 11.07, 11.38, 11.38, 11.36, 11.36, 11.03, 10.99, 10.72, 10.69, 10.36, 10.3, 10.01, 11.25, 9.37, 9.94, 9.86, 10.13, 10.24, 9.67, 9.78, 9.4, 9.52, 9.27, 9.2, 10.05, 10.32, 10.73, 11.18, 10.52, 8.93, 2.02, -0.0, -1.18, -0.0, -0.0, -0.0, -0.0, -0.0, -0.0, -0.89, -0.0, 0.85, 0.82, 2.6, 5.21, 6.76, 7.06, 7.36, 7.36, 7.59, 7.74, 9.67, 11.26, 9.89, 9.81, 11.03, 15.85, 27.71, 23.27, 14.36, 11.18, 12.72, 13.28, 15.07, 15.91, 15.58, 15.9, -16.54, -16.54, -16.09, 15.2, 14.11, 13.31, 12.96, 13.41, 13.86, 14.3, 14.22, 14.42, 14.11, 14.11, 8.93, 8.93, 8.93, 9.35, 9.61, 9.61, 10.02, 10.02, 10.33, 10.33, 10.71, 10.71, 10.71, 11.0, 11.06, 11.06, 11.07, 11.07, 11.38, 11.06, 11.36, 11.03, 11.03, 10.72, 10.72, 10.69, 10.36, 10.65, 10.65, 10.51, 9.59, 9.37, 9.37, 9.66, 9.95, 9.67, 9.67, 9.97, 9.4, 9.32, 9.6, 9.2, 10.05, 10.62, 10.73, 10.28, 10.08, 7.27, -0.0, -0.0, -0.0, -0.0, -0.0, 0.93, 0.93, 0.85, -0.0, -0.0, -0.0, 0.82, 3.04, 3.92, 5.54, 7.15, 6.17, 7.06, 7.06, 8.07, 8.93, 10.19, 10.25, 11.2, 11.87, 15.17, 23.56, 25.22, 17.9, 14.84, 13.64, 13.78, 15.85, 16.26, 16.22, 16.79, 16.54, -11.38, -13.39, 10.75, 14.3, 13.41, 12.52, 12.52, 12.52, 13.41, 13.41, 14.4, 14.42, 14.42, 8.93, 8.93, 8.93, 9.35, 9.35, 9.61, 9.61, 10.33, 10.33, 10.33, 10.33, 10.71, 10.71, 11.0, 10.71, 10.71, 11.07, 11.07, 11.07, 11.38, 11.36, 11.03, 11.03, 10.72, 10.4, 10.69, 10.36, 10.65, 10.65, 11.16, 10.51, 9.86, 9.3, 9.08, 9.3, 9.58, 9.86, 9.67, 9.58, 9.86, 9.45, 9.2, 9.55, 10.47, 10.2, 10.28, 9.83, 9.2, 2.02, -0.0, -0.0, -0.0, 1.07, 1.84, 1.76, 1.69, 1.5, 0.75, 0.75, 0.73, 1.39, 4.08, 5.32, 6.5, 6.5, 7.15, 7.06, 8.41, 8.82, 9.53, 10.12, 11.75, 13.28, 15.38, 19.37, 20.95, 19.89, 17.72, 16.76, 17.85, 17.43, 16.99, 15.61, 15.2, 15.65, 0.0, 0.0, 13.19, 13.28, 12.52, 12.52, 12.52, 12.52, 12.52, 12.96, 12.96, 14.31, 14.31, 8.68, 8.68, 8.93, 8.93, 9.35, 9.35, 9.92, 10.33, 10.33, 10.33, 10.33, 10.71, 10.71, 10.71, 10.71, 11.03, 11.07, 11.07, 11.07, 11.38, 11.36, 11.03, 11.05, 10.72, 10.4, 10.69, 10.36, 10.36, 10.65, 10.65, 10.8, 10.41, 9.86, 8.94, 8.73, 8.73, 9.21, 9.48, 9.58, 9.58, 9.47, 9.6, 9.49, 9.24, 9.42, 9.6, 9.54, 10.28, 6.17, -0.0, -0.0, 1.07, 2.02, 1.92, 2.71, 2.39, 2.21, 2.21, 2.06, 0.73, 1.36, 3.01, 5.32, 5.7, 6.31, 7.9, 7.27, 8.07, 8.41, 8.41, 10.55, 10.12, 14.24, 16.21, 18.93, 17.3, 17.17, 19.4, 21.42, 19.22, 19.18, 15.93, 12.63, 12.58, 13.19, 12.14, 11.6, 11.87, 12.52, 12.96, 12.79, 12.3, 12.79, 12.96, 12.52, 12.71, 13.15, 13.15, 8.68, 8.68, 8.93, 8.93, 9.35, 9.66, 9.92, 9.92, 10.33, 10.33, 10.33, 10.33, 10.65, 11.03, 11.03, 11.03, 10.73, 11.07, 11.07, 11.38, 11.06, 10.75, 11.05, 10.72, 10.4, 10.69, 10.69, 10.36, 10.65, 10.65, 10.59, 10.51, 10.41, 9.76, 9.21, 8.94, 9.01, 9.21, 9.3, 9.58, 9.47, 9.47, 9.45, 10.38, 8.72, 8.99, 9.2, 9.75, 9.97, 3.39, 1.18, 2.1, 2.95, 2.82, 2.59, 2.39, 2.89, 2.76, 2.06, 1.3, 1.3, 2.42, 5.1, 5.46, 6.59, 7.15, 6.4, 6.77, 7.06, 7.59, 9.17, 10.12, 13.99, 17.33, 20.16, 17.72, 13.83, 16.99, 22.35, 22.35, 18.78, 15.49, 13.07, 11.45, 11.64, 12.42, 13.01, 12.83, 12.96, 12.79, 12.3, 12.89, 12.89, 13.23, 12.71, 12.04, 11.5, 11.5, 8.68, 8.68, 8.68, 8.93, 9.66, 9.66, 9.66, 9.66, 9.92, 10.33, 10.33, 10.37, 10.37, 10.73, 11.03, 10.73, 10.73, 10.73, 11.07, 11.38, 11.06, 11.06, 11.05, 10.72, 10.4, 10.4, 10.69, 10.69, 10.65, 10.65, 10.59, 10.23, 10.51, 10.41, 10.13, 9.58, 9.21, 9.01, 9.3, 8.93, 9.35, 9.47, 9.32, 10.92, 9.33, 9.24, 8.99, 8.93, 10.28, 5.95, 3.25, 3.25, 3.82, 3.82, 3.36, 2.97, 2.97, 2.76, 2.58, 1.93, 1.3, 1.84, 4.8, 5.21, 5.9, 5.95, 5.32, 6.31, 7.06, 7.9, 7.9, 10.55, 12.9, 15.77, 22.25, 21.76, 14.6, 15.2, 19.67, 20.12, 16.94, 15.15, 14.95, 14.4, 13.75, 13.41, 13.86, 13.86, 13.28, 13.28, 13.28, 13.31, 13.01, 12.72, 12.72, 12.3, 11.5, 11.5, 8.68, 8.68, 8.68, 8.68, 9.23, 9.66, 9.66, 9.66, 9.66, 10.37, 10.37, 10.37, 10.65, 10.65, 11.03, 11.03, 11.03, 10.73, 10.73, 11.06, 11.06, 11.05, 11.05, 10.72, 10.4, 10.4, 10.69, 10.69, 10.65, 10.65, 10.59, 10.59, 10.51, 10.51, 10.41, 10.13, 9.38, 9.21, 9.3, 8.93, 9.35, 8.96, 9.07, 9.13, 11.28, 9.33, 9.6, 9.6, 10.28, 7.27, 5.21, 4.78, 4.56, 4.2, 4.2, 3.88, 3.44, 3.21, 2.58, 1.84, 1.93, 1.84, 2.92, 4.88, 5.1, 5.1, 5.46, 6.77, 7.06, 7.9, 8.41, 9.67, 12.39, 13.99, 16.99, 23.12, 22.41, 15.91, 14.3, 13.86, 13.41, 13.09, 12.56, 12.33, 11.26, 12.39, 12.79, 13.81, 13.88, 13.44, 13.44, 13.77, 13.75, 13.72, 13.23, 12.72, 12.04, 11.5, 8.68, 8.68, 8.97, 8.97, 8.97, 9.39, 9.66, 9.66, 9.97, 9.97, 10.37, 10.65, 10.65, 10.65, 11.03, 11.03, 11.03, 10.73, 11.05, 11.06, 10.75, 11.05, 10.72, 10.72, 10.4, 10.69, 10.69, 10.69, 10.65, 10.65, 10.3, 10.59, 10.59, 10.51, 10.79, 10.68, 10.3, 9.76, 9.21, 9.1, 9.1, 8.82, 9.07, 9.32, 9.33, 10.84, 10.14, 10.23, 9.64, 8.18, 7.06, 6.64, 5.63, 4.96, 4.6, 4.28, 3.27, 3.21, 2.46, 1.97, 1.84, 1.97, 2.6, 3.87, 3.87, 5.1, 5.9, 6.87, 7.27, 8.41, 9.17, 9.67, 11.26, 12.39, 13.42, 17.11, 25.05, 24.06, 12.39, 11.33, 12.27, 12.09, 11.35, 10.99, 11.31, 12.17, 13.02, 13.86, 14.13, 14.03, 14.03, 14.22, 13.77, 13.75, 13.28, 12.79, 12.04, 12.04, 8.97, 8.97, 8.97, 8.97, 8.97, 8.97, 9.66, 9.97, 9.97, 9.97, 10.65, 10.65, 10.65, 10.65, 10.65, 11.03, 11.03, 11.05, 11.05, 10.74, 10.75, 10.75, 10.72, 10.72, 10.72, 11.03, 10.42, 10.36, 10.65, 10.65, 10.65, 10.59, 10.59, 10.51, 10.51, 10.41, 10.68, 10.3, 9.76, 9.48, 9.1, 9.2, 9.07, 9.07, 9.96, 10.41, 10.26, 9.83, 9.15, 8.67, 8.4, 7.44, 6.32, 5.89, 5.21, 4.87, 3.6, 3.56, 3.21, 2.46, 1.97, 1.87, 2.5, 3.87, 3.87, 4.88, 6.58, 7.27, 7.27, 8.82, 9.67, 9.77, 11.92, 11.2, 13.19, 14.39, 18.88, 27.47, 24.27, 16.87, 16.1, 15.33, 15.78, 13.58, 11.99, 12.79, 13.15, 13.88, 14.51, 14.07, 14.23, 14.23, 13.77, 13.31, 12.79, 12.04, 12.04, 12.04, 8.28, 8.28, 8.97, 8.97, 8.97, 8.97, 9.97, 9.97, 9.97, 9.97, 10.65, 10.65, 10.65, 10.65, 10.65, 10.99, 11.05, 11.05, 11.05, 10.44, 10.75, 10.43, 10.72, 10.72, 11.03, 11.03, 10.42, 10.36, 10.65, 10.65, 10.65, 10.59, 10.59, 10.51, 10.51, 10.79, 10.96, 10.83, 10.3, 10.02, 9.48, 9.2, 9.47, 9.72, 9.96, 10.6, 10.65, 9.83, 9.37, 8.84, 8.63, 8.3, 7.44, 6.73, 5.21, 4.87, 4.05, 3.6, 3.05, 2.46, 2.46, 2.46, 2.01, 2.6, 3.87, 6.3, 6.58, 7.59, 7.74, 9.3, 9.77, 9.38, 10.4, 11.8, 12.21, 14.19, 16.38, 21.19, 27.3, 23.84, 21.33, 21.19, 17.8, 17.16, 13.99, 13.55, 14.14, 14.26, 14.3, 14.3, 13.86, 13.86, 13.86, 13.28, 12.71, 12.71, 12.71, 12.71, 8.28, 8.28, 8.72, 8.97, 8.97, 9.28, 9.28, 9.69, 9.97, 9.97, 9.97, 10.69, 10.99, 10.69, 10.69, 10.69, 10.69, 10.39, 10.74, 10.44, 10.13, 10.72, 10.72, 10.72, 11.03, 10.69, 10.69, 10.36, 10.65, 10.65, 10.65, 10.59, 10.59, 10.87, 10.51, 10.7, 10.7, 10.96, 10.68, 10.3, 9.63, 9.35, 9.47, 9.72, 9.96, 10.18, 10.37, 10.19, 9.83, 9.83, 9.26, 9.06, 8.0, 7.06, 6.32, 4.87, 4.56, 4.05, 3.37, 2.5, 2.33, 2.63, 2.01, 2.5, 4.8, 6.3, 7.56, 6.64, 7.74, 8.58, 9.67, 8.23, 9.3, 11.2, 12.21, 13.2, 14.79, 16.95, 20.83, 23.59, 25.01, 25.86, 24.16, 18.01, 16.7, 15.17, 14.75, 14.75, 14.75, 13.41, 14.3, 12.52, 12.96, 12.96, 12.96, 12.52, 12.52, 12.52, 8.28, 8.28, 8.28, 8.72, 9.28, 9.02, 9.28, 9.69, 9.69, 10.3, 10.3, 10.69, 10.69, 10.69, 10.69, 10.39, 10.39, 10.39, 10.44, 10.44, 10.44, 10.43, 10.72, 11.03, 10.69, 10.69, 10.36, 10.65, 10.65, 10.65, 10.3, 10.59, 10.59, 10.59, 10.8, 11.07, 11.07, 10.7, 10.41, 10.3, 10.02, 9.74, 10.0, 9.72, 9.96, 10.18, 10.37, 10.08, 10.26, 9.83, 9.81, 9.06, 8.72, 7.67, 7.06, 5.31, 4.87, 4.32, 3.6, 2.89, 2.5, 2.5, 2.63, 2.76, 3.75, 6.58, 6.95, 5.82, 6.95, 7.74, 8.23, 8.58, 9.67, 11.2, 12.21, 12.79, 14.31, 15.36, 16.74, 17.19, 22.79, 28.43, 27.14, 22.19, 19.96, 16.54, 16.5, 15.91, 14.07, 13.72, 13.23, 11.95, 12.52, 12.52, 12.52, 12.07, 12.07, 12.07, 8.58, 8.58, 8.58, 9.02, 9.02, 9.02, 9.02, 9.69, 10.02, 10.02, 10.02, 10.02, 10.39, 10.39, 10.39, 10.39, 10.39, 10.1, 10.44, 10.44, 10.75, 10.43, 10.12, 10.42, 10.36, 10.36, 10.36, 10.65, 10.65, 10.65, 10.3, 10.59, 10.94, 11.16, 11.16, 11.16, 10.8, 10.51, 10.41, 10.13, 10.02, 9.88, 10.0, 10.24, 9.96, 10.18, 10.37, 10.08, 10.18, 10.28, 9.83, 9.26, 8.82, 8.0, 6.35, 5.64, 5.31, 4.32, 3.6, 2.89, 2.37, 2.5, 2.5, 2.63, 3.21, 5.46, 5.21, 5.21, 6.3, 6.95, 7.74, 9.3, 10.4, 11.2, 12.18, 12.72, 13.67, 14.42, 14.94, 14.99, 16.99, 23.9, 27.08, 25.41, 23.07, 18.33, 15.51, 14.1, 13.02, 12.14, 12.14, 12.39, 11.91, 12.07, 12.07, 12.07, 12.07, 12.07, 8.58, 8.58, 8.58, 8.33, 9.02, 9.02, 9.02, 9.33, 9.73, 10.02, 10.02, 10.02, 10.39, 10.39, 10.39, 10.1, 10.1, 10.42, 10.75, 10.75, 10.43, 10.43, 10.12, 10.42, 10.36, 10.36, 10.36, 10.65, 10.65, 10.65, 10.65, 10.65, 10.88, 11.23, 11.23, 11.16, 10.8, 10.51, 10.41, 9.76, 9.63, 9.74, 10.0, 10.24, 10.46, 10.05, 10.18, 10.08, 10.19, 10.26, 9.83, 9.81, 9.11, 8.4, 7.06, 6.35, 5.64, 5.03, 4.32, 3.09, 2.92, 2.54, 2.06, 2.01, 2.63, 5.1, 5.1, 4.88, 6.3, 7.4, 8.55, 9.38, 10.4, 11.21, 11.76, 12.72, 12.79, 12.99, 13.19, 13.58, 15.15, 18.38, 24.1, 26.25, 26.61, 19.67, 14.99, 12.18, 10.79, 10.61, 11.5, 11.45, 11.4, 11.18, 11.18, 10.73, 10.73, 10.73, 8.33, 8.33, 8.33, 8.33, 8.75, 8.75, 9.06, 9.33, 9.73, 9.73, 9.73, 9.73, 9.73, 10.42, 10.42, 10.42, 10.42, 10.42, 10.42, 10.43, 10.43, 10.12, 10.12, 10.42, 10.69, 10.69, 10.69, 10.99, 10.99, 10.99, 10.99, 11.23, 11.23, 11.23, 11.23, 10.88, 10.8, 10.51, 9.86, 9.76, 9.48, 9.74, 10.0, 10.24, 10.24, 10.46, 10.24, 10.37, 10.08, 10.26, 9.83, 9.81, 9.26, 8.4, 7.32, 6.35, 6.01, 5.03, 4.32, 3.09, 3.09, 2.4, 1.95, 2.06, 2.06, 3.32, 4.4, 5.06, 5.76, 6.48, 7.4, 8.23, 10.38, 11.21, 11.62, 11.8, 11.99, 11.58, 12.18, 12.81, 14.18, 15.15, 17.99, 23.15, 26.65, 20.85, 10.73, 9.55, 8.22, 8.85, 8.53, 10.4, 10.73, 10.28, 9.83, 9.39, 9.39, 9.39, 8.33, 8.33, 8.33, 8.33, 8.75, 9.06, 9.06, 9.06, 9.44, 9.73, 9.73, 9.73, 10.06, 10.42, 10.42, 10.72, 10.42, 10.42, 10.11, 10.11, 10.12, 10.12, 10.12, 10.42, 10.69, 10.69, 10.69, 10.99, 10.99, 10.99, 11.58, 11.28, 11.28, 11.23, 11.23, 10.88, 10.59, 9.94, 9.86, 9.58, 9.48, 9.74, 9.74, 10.0, 10.24, 10.46, 10.24, 10.37, 10.08, 10.18, 10.28, 9.83, 9.36, 8.14, 7.67, 6.96, 6.35, 5.35, 4.32, 3.85, 3.33, 3.14, 2.6, 2.12, 1.44, 2.83, 4.2, 4.4, 5.29, 5.64, 6.95, 7.4, 8.34, 10.21, 10.8, 10.73, 10.94, 10.94, 11.97, 12.99, 13.56, 13.56, 14.53, 17.7, 26.06, -8.4, -4.52, 10.73, 7.59, 6.2, 3.68, 8.22, 10.6, 10.73, 10.28, 9.83, 9.83, 9.83, 8.33, 8.08, 8.08, 8.38, 8.38, 8.78, 8.78, 9.06, 9.06, 9.44, 9.76, 9.76, 10.06, 10.35, 10.72, 10.42, 10.42, 10.11, 10.11, 9.8, 10.12, 9.8, 10.42, 10.42, 10.69, 10.69, 10.69, 10.69, 11.28, 11.28, 11.28, 11.28, 11.28, 11.23, 10.88, 10.59, 10.51, 9.86, 9.5, 9.21, 9.48, 9.74, 9.74, 10.0, 10.24, 10.24, 10.05, 10.37, 10.52, 10.19, 10.26, 9.83, 9.81, 8.48, 8.14, 7.28, 6.7, 5.35, 4.61, 3.85, 3.33, 3.4, 2.6, 2.0, 1.36, 2.06, 2.97, 2.7, 4.4, 5.9, 6.83, 7.27, 7.74, 7.4, 9.3, 9.17, 10.25, 10.94, 11.99, 12.93, 13.47, 13.47, 13.57, 16.48, 21.81, -14.54, -11.38, -0.0, 10.73, 9.6, 5.0, 5.0, 8.22, 10.6, 10.41, 9.64, 9.64, 9.64, 8.38, 8.38, 8.11, 8.11, 8.11, 8.38, 8.78, 8.78, 8.78, 9.76, 10.06, 10.06, 10.35, 10.06, 10.42, 10.42, 10.11, 10.11, 9.8, 9.8, 10.12, 10.42, 10.09, 10.42, 10.69, 10.69, 10.69, 11.28, 11.28, 11.28, 11.28, 11.28, 10.94, 10.88, 10.3, 10.23, 9.94, 9.5, 9.58, 9.21, 9.48, 9.63, 9.88, 9.88, 10.0, 10.24, 10.05, 10.18, 10.37, 10.19, 10.26, 9.83, 9.83, 8.67, 8.4, 7.28, 6.96, 6.01, 4.61, 4.14, 3.91, 3.4, 2.82, 2.18, 1.49, 1.49, 2.28, 2.28, 4.78, 5.21, 6.04, 7.27, 7.68, 7.27, 7.74, 8.41, 9.53, 10.99, 11.8, 12.3, 12.82, 12.93, 14.25, 26.57, 24.79, -18.66, -16.54, -12.96, 11.62, 10.28, 10.0, 10.0, 10.4, 9.67, 9.6, 9.97, 9.97, 9.97, 8.11, 8.11, 8.11, 8.11, 8.11, 8.11, 8.38, 8.78, 9.38, 9.66, 10.06, 10.06, 10.06, 10.06, 10.42, 10.11, 10.11, 10.11, 10.12, 10.12, 10.42, 10.42, 10.42, 10.42, 10.69, 11.03, 10.99, 10.99, 10.99, 11.28, 11.28, 10.94, 10.88, 10.3, 10.01, 9.94, 9.86, 9.3, 9.58, 9.38, 9.63, 9.63, 9.88, 9.88, 10.0, 10.24, 10.46, 10.18, 10.37, 10.08, 10.19, 9.81, 9.36, 8.67, 8.4, 7.73, 7.28, 6.35, 4.94, 4.46, 4.22, 3.69, 3.09, 2.4, 2.4, 1.65, 1.84, 2.99, 5.1, 6.17, 7.27, 7.74, 7.68, 7.68, 8.12, 8.07, 9.67, 10.6, 11.39, 11.76, 12.3, 13.25, 17.78, 25.02, 23.99, -18.78, -15.2, -12.96, 0.0, 8.22, 11.18, 11.18, 11.18, 11.18, 10.73, 10.28, 10.28, 10.28, 7.85, 7.85, 8.11, 8.11, 8.11, 8.38, 8.38, 9.38, 9.38, 9.38, 9.38, 10.06, 9.76, 9.76, 10.11, 10.43, 10.43, 10.43, 10.43, 10.12, 10.74, 10.74, 10.74, 10.74, 10.72, 10.72, 11.33, 11.33, 10.99, 11.28, 10.94, 11.23, 10.65, 10.23, 9.94, 9.59, 9.3, 9.3, 9.58, 9.76, 9.76, 9.63, 9.63, 9.88, 10.0, 10.24, 10.46, 10.18, 10.37, 10.52, 10.19, 10.26, 9.36, 9.26, 8.63, 7.98, 7.6, 6.7, 5.3, 4.46, 4.46, 3.69, 3.69, 3.09, 2.54, 2.83, 3.17, 3.17, 5.1, 6.98, 8.07, 8.07, 8.07, 8.12, 7.76, 8.18, 8.93, 10.4, 11.76, 11.76, 11.76, 12.38, 17.81, 22.28, 27.27, -17.88, -13.86, -10.73, -10.73, 0.0, 11.18, 11.62, 11.62, 11.18, 11.18, 9.83, 9.83, 9.83, 7.85, 7.85, 8.11, 8.11, 8.38, 8.69, 8.69, 8.69, 9.38, 9.38, 9.38, 9.76, 9.76, 10.09, 10.43, 10.43, 10.43, 10.43, 10.43, 10.43, 10.74, 10.74, 10.74, 11.05, 11.05, 11.05, 11.33, 10.99, 10.99, 11.28, 11.23, 10.65, 10.59, 10.3, 9.94, 9.66, 9.3, 9.3, 9.58, 9.76, 9.76, 10.02, 9.63, 9.48, 9.6, 9.6, 9.83, 9.96, 10.18, 10.37, 10.08, 10.26, 9.39, 9.36, 8.67, 8.4, 7.6, 7.07, 5.3, 4.83, 4.83, 4.83, 4.26, 3.6, 3.6, 3.6, 4.21, 2.98, 3.8, 7.59, 7.59, 7.59, 8.07, 7.74, 8.55, 8.99, 9.4, 10.38, 10.92, 11.34, 11.76, 13.2, 16.84, 20.2, 28.61, -23.85, -16.09, -11.62, -7.9, 0.0, 0.0, 11.62, 11.62, 11.62, 11.18, 10.28, 10.28, 10.28, 7.85, 7.85, 8.42, 8.42, 8.42, 8.42, 8.42, 8.42, 9.09, 9.09, 9.09, 9.78, 10.09, 10.09, 10.43, 10.43, 10.43, 10.75, 10.75, 10.75, 11.07, 11.07, 11.07, 11.05, 11.05, 11.05, 11.33, 10.99, 11.28, 10.94, 10.65, 10.59, 10.23, 9.94, 9.59, 9.66, 9.66, 9.3, 9.3, 9.76, 9.76, 10.02, 9.63, 9.48, 9.35, 9.6, 9.83, 9.96, 10.18, 10.37, 10.08, 9.81, 9.39, 9.36, 8.82, 8.63, 7.98, 7.07, 6.01, 5.3, 5.24, 5.24, 4.68, 4.26, 3.99, 4.21, 4.21, 4.21, 4.94, 5.98, 5.98, 6.44, 7.27, 7.4, 7.76, 8.18, 8.6, 9.85, 10.28, 11.13, 12.18, 13.15, 15.25, 18.85, 25.84, 0.0, -17.85, -14.42, -7.9, -5.0, 0.0, 5.2, 11.45, 11.28, 11.18, 11.18, 11.18, 11.18, 7.73, 7.73, 8.15, 8.15, 8.15, 8.15, 8.42, 8.74, 9.13, 9.13, 9.42, 9.71, 10.09, 10.09, 10.75, 10.75, 10.75, 10.75, 10.75, 11.07, 11.07, 11.07, 11.07, 11.05, 10.72, 11.05, 10.72, 10.99, 10.94, 10.69, 10.65, 10.59, 10.01, 9.94, 9.59, 9.86, 9.66, 9.3, 9.3, 9.76, 9.76, 10.02, 9.63, 9.88, 9.35, 9.6, 9.83, 9.96, 10.18, 10.37, 10.08, 9.81, 9.83, 9.39, 8.91, 8.82, 8.19, 7.42, 6.01, 6.01, 5.69, 5.69, 5.24, 4.94, 4.94, 5.44, 5.72, 5.2, 4.44, 4.05, 5.1, 6.69, 6.95, 7.06, 7.06, 7.81, 8.21, 8.58, 9.75, 10.79, 11.76, 13.01, 14.58, 17.4, 23.69, 27.55, 0.0, -13.99, -10.41, -3.68, 0.0, 3.68, 8.53, 10.04, 9.67, 11.03, 11.03, 11.03, 7.48, 7.48, 7.48, 7.87, 8.46, 8.46, 8.46, 8.74, 9.13, 9.42, 9.42, 9.71, 10.09, 10.4, 10.75, 10.75, 10.75, 10.75, 10.75, 11.07, 11.07, 10.74, 11.07, 11.05, 10.72, 10.72, 10.72, 10.69, 10.69, 10.36, 10.65, 10.59, 10.01, 9.94, 9.59, 9.86, 9.66, 9.3, 9.5, 9.76, 9.76, 9.76, 9.63, 9.48, 9.35, 9.6, 9.83, 9.96, 9.96, 10.18, 9.93, 9.74, 9.81, 9.39, 8.91, 8.91, 8.36, 7.76, 6.79, 6.45, 6.45, 6.45, 6.45, 6.01, 6.01, 5.44, 5.72, 5.72, 4.44, 3.52, 5.46, 7.9, 7.81, 7.13, 7.51, 8.21, 8.21, 9.13, 9.85, 11.13, 12.08, 13.23, 14.71, 16.51, 22.8, 27.72, 19.52, 11.38, -10.12, -4.24, 0.0, 0.0, 6.94, 10.79, 10.04, 10.04, 10.04, 10.04, 7.48, 7.48, 7.78, 8.17, 8.17, 8.46, 8.46, 8.74, 9.13, 9.42, 9.42, 9.71, 10.09, 10.4, 10.4, 10.75, 10.75, 10.75, 11.07, 11.07, 10.74, 10.74, 11.36, 11.05, 10.72, 11.03, 10.69, 10.69, 10.36, 10.65, 10.3, 10.01, 10.01, 9.94, 9.59, 9.86, 9.86, 9.5, 9.5, 9.76, 9.76, 9.76, 9.63, 9.1, 9.35, 9.6, 9.83, 9.83, 9.96, 10.18, 9.93, 9.74, 9.81, 9.39, 9.39, 8.91, 8.8, 7.89, 7.2, 6.79, 6.79, 6.79, 6.79, 6.45, 6.91, 6.52, 6.87, 6.32, 5.72, 4.96, 6.01, 7.9, 7.27, 8.93, 8.4, 8.99, 9.13, 9.42, 9.85, 10.52, 11.88, 12.79, 14.26, 15.61, 20.97, 27.66, 21.9, 16.09, 14.03, 6.2, 0.0, 0.0, 0.0, 3.96, 6.94, 8.53, 8.53, 8.53, 7.78, 7.78, 7.78, 8.17, 8.17, 8.46, 8.46, 8.74, 9.13, 9.76, 9.76, 10.07, 10.43, 10.43, 10.43, 10.76, 10.76, 10.43, 10.74, 10.74, 10.74, 11.03, 11.03, 11.03, 11.03, 10.69, 10.69, 10.36, 10.36, 10.65, 10.06, 10.01, 10.01, 9.94, 9.59, 9.86, 9.86, 9.86, 9.5, 9.76, 9.76, 9.21, 9.48, 9.1, 9.35, 9.6, 9.83, 9.83, 9.96, 9.75, 9.89, 9.62, 9.72, 9.39, 9.39, 8.94, 8.91, 8.56, 8.17, 7.2, 7.42, 7.42, 7.42, 7.2, 7.2, 7.2, 7.28, 7.28, 6.32, 5.72, 6.01, 6.11, 7.13, 11.03, 8.91, 9.42, 9.42, 9.42, 10.08, 10.56, 11.57, 12.92, 13.82, 14.72, 18.74, 24.84, 24.08, 18.72, 15.65, 14.75, 13.44, 9.48, 3.14, 3.04, 3.04, 5.6, 5.6, 5.6, 7.78, 7.78, 7.78, 8.17, 8.17, 8.46, 8.46, 8.74, 9.13, 9.76, 9.76, 10.07, 10.43, 10.43, 10.43, 10.76, 10.76, 10.43, 10.74, 10.74, 10.74, 11.03, 11.03, 11.03, 11.03, 10.69, 10.69, 10.36, 10.36, 10.65, 10.06, 10.01, 10.01, 9.94, 9.59, 9.86, 9.86, 9.86, 9.5, 9.76, 9.76, 9.21, 9.48, 9.1, 9.35, 9.6, 9.83, 9.83, 9.96, 9.75, 9.89, 9.62, 9.72, 9.39, 9.39, 8.94, 8.91, 8.56, 8.17, 7.2, 7.42, 7.42, 7.42, 7.2, 7.2, 7.2, 7.28, 7.28, 6.32, 5.72, 6.01, 6.11, 7.13, 11.03, 8.91, 9.42, 9.42, 9.42, 10.08, 10.56, 11.57, 12.47, 13.37, 14.27, 15.95, 19.96, 23.23, 20.8, 19.0, 16.04, 15.14, 14.3, 13.67, 12.45, 10.01, 8.53, 8.53, 8.53]}, {"header": {"dx": 0.06612293990616946, "dy": 0.0552356325346848, "nx": 98, "ny": 59, "la1": 35.046912555036876, "la2": 31.78801023549047, "lo1": -121.43107172385933, "lo2": -114.95102361305473, "refTime": "2026041621", "parameterCategory": 1, "parameterNumber": 3}, "data": [-12.58, -12.58, -12.58, -11.88, -11.58, -10.65, -9.97, -9.39, -8.72, -8.18, -7.53, -6.9, -5.55, -4.36, -2.71, -1.77, -0.97, 0.0, 0.0, -5.6, -12.3, -12.96, -11.62, -11.18, -10.84, -10.4, -9.66, -10.01, -10.35, -10.35, -10.01, -11.6, -12.14, -11.18, -9.97, -8.8, -7.33, -7.33, -5.86, -5.7, -4.4, -4.54, -4.08, -5.08, -5.35, -5.8, -6.73, -5.73, -3.54, -1.72, -0.89, 0.0, 0.0, 0.0, 0.87, 0.87, 1.64, 1.64, 1.64, 1.59, 2.5, 2.43, 3.38, 3.28, 4.16, 3.95, 4.07, 4.81, 5.06, 5.36, 4.8, 4.95, 4.95, 4.95, 5.26, 5.26, 4.05, 3.0, 2.24, 2.43, 1.3, 0.0, 0.0, -3.96, -10.04, -10.4, -5.4, 0.0, 0.0, 1.58, 5.6, 12.33, 13.59, 14.47, 14.13, 12.5, 10.99, 12.3, -12.96, -12.58, -12.58, -12.28, -11.58, -10.94, -10.37, -9.39, -9.12, -8.46, -7.95, -8.18, -6.65, -5.6, -4.81, -2.62, -1.92, -1.5, -1.71, -2.82, -9.48, -12.96, -12.96, -12.96, -10.52, -10.0, -10.4, -11.21, -10.35, -10.73, -13.28, -12.87, -12.27, -9.83, -7.94, -8.0, -7.4, -7.76, -7.81, -7.27, -7.28, -6.65, -6.87, -7.97, -8.6, -8.85, -7.6, -3.95, -1.96, -1.05, -0.98, 0.0, 0.0, 0.0, 0.0, 0.87, 0.82, 0.8, 1.64, 1.59, 2.5, 2.43, 3.2, 3.38, 3.2, 4.07, 4.07, 4.07, 4.07, 4.31, 4.67, 3.9, 4.15, 3.92, 4.18, 3.09, 3.09, 3.0, 2.24, 2.43, 1.3, 0.0, 0.0, -3.96, -10.04, -10.4, -5.4, 0.0, 0.0, 1.58, 5.6, 12.33, 13.59, 14.47, 14.13, 12.5, 10.99, 12.3, -12.96, -12.96, -12.58, -12.28, -12.28, -11.23, -10.65, -10.05, -9.12, -8.85, -8.2, -7.59, -6.65, -5.93, -4.58, -3.68, -3.68, -2.82, -3.47, -3.56, -6.45, -10.41, -12.52, -13.41, -13.44, -9.96, -9.96, -9.96, -10.38, -10.79, -14.47, -14.99, -14.3, -11.18, -8.17, -8.3, -7.95, -8.0, -8.99, -9.86, -9.02, -8.85, -10.18, -11.12, -10.52, -7.97, -4.49, -1.9, -1.05, 0.0, 0.0, 0.0, 0.0, 0.0, 0.0, 0.0, 0.8, 0.82, 1.64, 1.64, 2.37, 2.43, 2.43, 3.2, 3.3, 3.3, 3.3, 3.22, 3.39, 3.49, 2.8, 2.97, 3.07, 2.15, 2.09, 2.09, 2.31, 2.31, 2.18, 1.34, 1.42, 0.0, 0.0, 0.0, -11.03, -11.62, -10.0, -4.15, -1.58, 3.96, 11.9, 14.4, 14.47, 14.47, 13.07, 10.73, 10.55, 12.14, -12.96, -12.96, -12.96, -12.28, -12.28, -11.97, -10.94, -10.33, -9.77, -8.85, -8.58, -8.22, -7.74, -5.99, -4.87, -4.47, -4.47, -4.12, -3.68, -4.12, -4.54, -6.71, -10.6, -11.18, -11.84, -12.58, -9.75, -9.64, -9.64, -11.18, -12.07, -13.86, -15.65, -15.18, -11.62, -9.96, -9.75, -9.86, -11.76, -12.17, -12.8, -13.59, -11.99, -8.65, -5.99, -4.66, -2.9, -2.02, -1.05, 0.0, 0.0, 0.0, 0.0, 0.0, 0.0, 0.0, 0.0, 0.0, 0.82, 0.82, 1.59, 1.68, 2.43, 2.43, 2.43, 2.5, 2.44, 3.07, 3.26, 3.51, 2.95, 1.94, 2.21, 2.09, 1.02, 0.0, 0.0, 0.0, 1.38, 1.38, 1.48, 3.68, 6.67, 6.45, 0.0, -8.22, -8.53, -4.32, 2.19, 11.53, 14.84, 14.4, 13.53, 12.72, 10.99, 10.18, 10.55, 12.42, -12.96, -12.96, -12.96, -12.64, -12.28, -12.28, -11.62, -11.33, -9.77, -9.21, -8.85, -8.59, -8.31, -6.53, -5.2, -5.2, -4.87, -5.2, -5.2, -4.99, -6.43, -7.82, -9.3, -11.62, -10.73, -12.07, -12.52, -12.07, -11.18, -10.28, -10.58, -10.6, -10.4, -10.41, -11.44, -13.28, -14.11, -12.39, -14.86, -15.83, -14.13, -10.75, -7.89, -6.98, -4.97, -4.08, -3.0, -2.02, -1.95, -2.01, -1.83, -1.77, -0.89, -0.87, -0.87, -0.82, -0.84, 0.0, 0.0, 0.0, 0.0, 0.79, 1.67, 1.72, 2.43, 1.83, 2.79, 3.59, 4.91, 5.68, 5.87, 4.61, 5.04, 2.87, 0.0, 0.0, 0.0, 0.0, 0.0, 0.0, 3.56, 11.12, 11.91, 11.02, 10.38, 8.22, 5.4, 6.97, 11.99, 14.75, 13.96, 12.66, 12.22, 11.6, 9.84, 9.48, 11.26, 12.42, -13.31, -12.96, -12.96, -12.64, -12.64, -12.28, -11.62, -11.33, -10.42, -9.48, -9.49, -8.86, -8.84, -7.19, -5.4, -5.2, -5.0, -5.57, -6.0, -6.24, -6.67, -7.41, -11.5, -13.15, -12.52, -12.07, -12.07, -12.07, -12.96, -12.07, -9.74, -9.45, -7.9, -5.69, -6.4, -9.8, -11.5, -12.39, -15.08, -14.07, -11.2, -10.99, -7.69, -5.92, -4.52, -3.58, -3.32, -3.22, -3.0, -2.81, -2.72, -2.72, -2.55, -1.77, -1.72, -1.72, -0.87, -0.82, 0.0, 0.0, 0.0, 0.84, 1.83, 1.78, 2.8, 2.95, 4.23, 5.23, 5.96, 8.06, 7.69, 7.92, 6.58, 4.55, 1.66, 0.0, 0.0, 0.0, 2.13, 2.54, 11.71, 11.62, 11.18, 11.53, 11.53, 11.28, 11.09, 12.56, 14.31, 13.96, 12.88, 13.09, 12.56, 10.55, 8.44, 8.59, 11.92, 12.52, -13.31, -13.31, -12.96, -12.64, -12.64, -12.64, -11.99, -11.62, -10.71, -9.84, -9.49, -9.21, -8.84, -7.12, -5.8, -5.2, -4.87, -5.4, -5.2, -6.2, -6.09, -6.76, -7.69, -10.41, -11.87, -10.4, -5.2, -8.53, -12.52, -10.73, -10.96, -9.04, -6.95, -4.56, -5.0, -5.8, -7.51, 0.0, -0.0, -9.2, -12.52, -7.19, -3.47, 0.0, 0.0, 0.0, 0.0, 0.0, -1.15, -1.53, 0.0, 0.0, 0.0, -1.05, -0.95, 0.0, 0.0, 0.0, 0.0, 0.0, 0.89, 1.9, 2.01, 2.97, 4.26, 6.14, 7.6, 7.63, 6.16, 6.64, 7.64, 6.62, 4.38, 2.52, 3.04, 2.11, 2.5, 2.63, 4.98, 13.41, 11.03, 11.18, 12.07, 12.07, 11.95, 12.42, 13.44, 13.39, 13.88, 13.01, 13.09, 12.72, 11.64, 9.48, 7.79, 9.96, 12.04, 12.07, -12.98, -12.98, -12.98, -12.64, -12.64, -12.64, -11.99, -11.68, -11.06, -10.13, -9.84, -9.5, -8.87, -7.78, -6.9, -5.51, -5.1, -4.93, -5.4, -5.86, -5.2, -4.58, -4.21, -3.12, 0.0, 5.4, 8.53, 8.85, 2.82, -6.2, -10.38, -10.79, -9.58, -6.7, -4.54, -3.21, -3.07, 11.18, 10.41, 10.4, 11.18, 8.53, 5.8, 7.13, 7.59, 8.93, 7.0, 5.5, 5.04, 3.1, 3.29, 2.2, 2.11, 0.99, 0.0, 0.0, 0.0, 0.0, 0.0, 0.0, 0.89, 1.03, 2.31, 6.02, 9.47, 10.19, 8.9, 6.56, 4.96, 4.03, 4.61, 2.42, 1.07, 0.0, 1.38, 3.2, 4.52, 4.24, 5.8, 14.3, 10.82, 10.41, 11.45, 12.52, 12.52, 13.23, 12.89, 12.72, 12.46, 12.46, 12.46, 11.92, 9.48, 8.87, 8.59, 11.2, 11.98, 11.62, -12.98, -12.98, -12.98, -12.98, -12.98, -12.64, -12.33, -11.68, -11.06, -10.77, -10.13, -9.8, -10.75, -9.48, -8.21, -7.36, -6.94, -6.56, -5.93, -6.48, -6.16, -5.4, -4.64, -2.71, 1.09, 8.85, 8.43, 8.58, 4.48, 0.0, -6.45, 0.0, 0.0, 3.82, 1.58, 0.0, 2.1, 9.96, 11.4, 10.38, 10.01, 10.01, 8.85, 8.38, 7.93, 8.51, 9.35, 9.0, 8.64, 6.8, 5.99, 4.1, 3.02, 1.96, 0.99, 0.0, 0.0, -0.92, -0.89, -0.96, 0.0, 2.98, 8.06, 11.69, 11.96, 10.19, 7.8, 5.41, 3.09, 1.95, 0.0, 0.0, -1.03, -1.11, 0.0, 0.0, 1.96, 2.54, 9.8, 15.2, 13.99, 8.38, 8.58, 9.8, 12.14, 12.52, 12.96, 12.96, 12.52, 12.71, 12.04, 11.12, 9.17, 9.48, 10.3, 12.04, 11.53, 11.98, -12.66, -12.98, -12.98, -12.98, -12.98, -12.98, -12.66, -12.01, -11.08, -10.77, -10.76, -10.43, -9.19, -8.87, -8.59, -8.42, -9.17, -9.17, -8.54, -7.56, -7.9, -7.9, -7.56, -5.2, 3.53, 10.84, 8.8, 9.3, 8.05, 2.37, 6.94, 14.3, 13.59, 11.21, 8.22, 5.98, 5.52, 7.58, 9.67, 9.62, 8.53, 6.63, 7.02, 5.77, 6.16, 8.54, 8.23, 8.2, 8.4, 7.0, 5.67, 5.67, 4.52, 3.36, 2.28, 1.19, 0.0, -1.08, -2.06, -2.24, 1.83, 13.46, 15.59, 13.9, 11.96, 10.46, 8.0, 4.8, 1.72, 0.0, -2.72, -4.19, -4.8, -4.73, -4.12, -1.72, 0.0, 6.45, 12.07, 14.3, 15.65, 16.05, 6.14, 3.07, 3.36, 7.44, 9.8, 12.39, 13.41, 12.96, 12.3, 11.2, 10.73, 10.79, 10.79, 12.04, 12.42, 12.42, -12.99, -12.99, -13.33, -13.33, -12.98, -12.98, -12.66, -11.7, -11.39, -11.08, -10.76, -10.75, -10.43, -9.5, -9.39, -8.18, -9.34, -9.06, -8.18, -6.6, -7.49, -8.68, -7.82, -5.6, 12.96, 10.73, 10.28, 9.54, 8.55, 8.85, 9.66, 9.46, 9.46, 8.18, 6.95, 5.98, 7.26, 8.93, 8.75, 7.68, 6.67, 6.08, 6.16, 7.54, 8.22, 8.82, 8.53, 6.94, 7.19, 7.44, 9.06, 10.69, 9.88, 10.6, 9.66, 9.92, 6.72, 0.0, -3.92, -3.25, 16.91, 17.42, 15.58, 14.17, 12.87, 12.03, 11.53, 7.49, 1.08, -2.54, -4.87, -6.6, -7.98, -7.71, -6.17, -6.0, 0.0, 11.18, 13.88, 15.2, 14.9, 15.34, 16.09, -0.0, -0.0, -0.0, -0.0, -0.0, -0.0, 9.48, 12.52, 12.52, 12.27, 10.73, 10.8, 12.46, 12.83, 12.83, -13.28, -12.99, -13.33, -13.33, -12.98, -12.98, -12.64, -11.99, -11.39, -11.08, -10.76, -10.75, -11.06, -10.47, -8.83, -6.88, -5.17, -4.77, -4.0, -3.17, -2.35, -1.63, 0.0, 1.73, 6.9, 10.41, 12.07, 8.24, 9.6, 8.93, 8.94, 8.93, 8.93, 7.9, 6.58, 6.98, 7.06, 7.65, 6.45, 5.4, 5.6, 6.7, 8.22, 9.08, 9.2, 8.93, 9.42, 9.77, 10.12, 11.53, 11.9, 14.18, 16.1, 17.99, 17.85, 17.85, 16.09, 3.09, -11.45, 12.39, 17.88, 18.05, 16.64, 14.94, 14.39, 16.17, 17.72, 14.44, 6.87, -1.41, -7.43, -9.27, -11.1, -11.68, -11.12, -11.62, -0.0, 8.18, 13.02, 15.65, 13.39, 14.39, 16.99, 5.65, -0.0, -3.16, -3.42, -3.69, -0.0, 3.36, 6.94, 11.03, 11.62, 11.28, 11.62, 12.79, 12.79, 12.83, -13.28, -13.28, -13.28, -13.62, -13.29, -13.29, -12.96, -12.32, -11.7, -11.38, -10.76, -10.76, -10.76, -11.08, -10.11, -8.37, -6.33, -4.7, -2.85, -2.48, -1.3, -0.64, 0.66, 1.34, 2.23, 3.36, 4.98, 9.17, 11.45, 6.95, 7.9, 8.59, 8.24, 7.27, 7.27, 6.69, 6.77, 6.2, 5.43, 5.0, 5.64, 8.22, 9.09, 8.18, 9.2, 9.6, 9.97, 10.8, 11.6, 11.99, 11.44, 12.25, 13.57, 14.9, 16.82, 17.62, 18.49, 10.2, -14.39, 11.45, 16.09, 16.26, 16.85, 15.55, 17.39, 18.68, 19.99, 22.04, 19.41, 19.23, -22.35, -19.93, -14.11, -11.62, -9.54, -6.45, -0.0, -0.0, -0.0, 0.0, 5.09, 13.76, 16.09, 16.54, 16.12, -0.0, -7.3, -5.65, -2.65, -0.0, -0.0, 5.2, 10.0, 11.62, 12.52, 12.96, 12.71, 13.23, -13.28, -13.28, -13.62, -13.62, -13.29, -13.29, -12.96, -12.32, -12.01, -11.7, -11.06, -11.06, -11.06, -11.08, -10.76, -9.83, -8.33, -6.48, -4.77, -4.1, -2.89, -1.7, -0.61, 0.0, 0.68, 0.79, 1.15, 1.96, 3.25, 3.96, 4.8, 7.59, 7.9, 7.56, 6.95, 6.95, 6.95, 5.7, 4.18, 4.8, 7.59, 8.55, 8.58, 8.55, 8.8, 9.2, 8.63, 10.38, 10.79, 11.62, 11.62, 11.21, 11.84, 11.84, 12.27, 11.5, 11.06, 6.08, 7.97, 13.86, 13.86, 15.58, 16.22, 16.66, 16.17, 15.81, 16.42, 17.52, 18.2, 19.33, 21.19, -12.4, -12.96, -8.03, -6.71, -0.0, -0.0, 12.33, 16.99, 12.01, 9.42, 9.92, 13.02, 15.2, 15.43, 16.54, -0.0, -3.59, -2.87, -2.72, -0.0, -0.0, 3.53, 5.6, 11.2, 12.96, 12.96, 12.96, -13.61, -13.28, -13.62, -13.62, -13.29, -13.62, -13.29, -12.96, -12.01, -11.7, -11.38, -11.06, -11.08, -11.08, -11.1, -10.47, -9.42, -8.3, -6.44, -5.26, -4.1, -3.44, -2.26, -1.19, -0.65, 0.0, 0.0, 0.0, 0.0, 0.0, 2.45, 3.82, 6.71, 7.27, 7.27, 8.03, 7.59, 5.9, 5.0, 6.14, 8.82, 9.6, 8.18, 8.18, 8.8, 9.13, 9.64, 9.55, 9.96, 10.0, 10.4, 10.84, 10.41, 7.81, 8.18, 7.59, 5.2, 3.98, 9.84, 15.93, 12.81, 12.86, 13.44, 13.88, 14.31, 14.61, 15.9, 15.19, 11.38, 9.0, 0.0, -17.17, -11.41, -6.44, -0.0, 16.54, 16.19, 14.88, 12.01, 10.61, 9.67, 7.6, 5.81, 0.0, 0.0, 14.75, 15.2, -0.0, -0.0, -0.0, -0.0, -0.0, -0.0, 5.6, 6.0, 12.96, 12.96, 12.96, -13.61, -13.28, -13.62, -13.62, -13.29, -13.62, -13.29, -13.29, -12.63, -12.01, -11.38, -11.38, -11.08, -11.08, -11.08, -10.76, -10.1, -9.0, -7.84, -6.66, -5.3, -4.63, -3.58, -2.53, -1.99, -0.74, 0.0, 0.0, 0.0, 0.0, 0.0, 1.33, 2.49, 5.52, 7.27, 7.15, 7.27, 6.69, 6.7, 9.2, 8.91, 8.91, 9.55, 9.64, 9.64, 8.72, 9.13, 9.55, 9.55, 9.55, 10.0, 10.4, 9.67, 8.93, 5.21, 2.39, 2.02, 4.32, 9.44, 12.73, 11.03, 9.97, 10.79, 11.21, 10.8, 12.04, 10.79, 10.75, 8.93, 6.22, -7.97, -16.79, -10.41, 4.55, 15.2, 16.39, 15.55, 13.28, 10.51, 9.43, 7.44, 5.8, 0.0, -4.66, -8.53, -0.0, 13.41, 12.96, 12.96, 9.8, -0.0, -0.0, 10.79, 13.01, 12.14, 12.07, 12.52, 12.52, -13.87, -13.87, -13.62, -13.62, -13.62, -13.62, -13.62, -13.29, -12.96, -12.33, -11.38, -11.38, -11.39, -11.39, -11.08, -10.76, -10.11, -9.45, -8.77, -7.63, -6.48, -5.15, -4.13, -2.94, -1.93, -0.68, -0.74, 0.0, 0.0, -0.95, 0.0, 0.0, 0.0, 4.15, 5.72, 7.13, 8.0, 9.2, 9.2, 9.13, 9.64, 8.87, 10.14, 8.67, 9.33, 8.8, 8.82, 8.82, 9.55, 9.2, 9.2, 9.6, 8.94, 7.59, 6.44, 4.6, 3.82, 5.52, 7.54, 8.1, 7.82, 6.71, 5.95, 7.59, 7.59, 8.23, 8.22, 6.97, 5.15, 2.87, -15.49, -14.31, -0.0, 21.01, 16.69, 14.88, 13.59, 11.43, 10.31, 8.4, 6.11, 5.01, 0.0, -10.75, -13.57, -0.0, 8.53, 12.96, 13.41, 13.86, 8.18, 8.05, 11.87, 12.96, 12.96, 12.07, 12.52, 12.52, -13.87, -13.87, -13.62, -13.62, -13.62, -13.62, -13.62, -13.29, -12.96, -12.63, -11.7, -11.38, -11.39, -11.39, -11.08, -10.47, -10.11, -10.1, -8.77, -7.66, -6.52, -5.85, -4.66, -2.85, -1.81, -1.36, -1.51, -1.59, -2.5, -2.64, -2.89, -2.04, -1.13, 1.11, 3.77, 7.27, 8.8, 9.2, 9.13, 9.64, 9.7, 9.7, 9.64, 10.08, 9.2, 8.03, 7.59, 8.23, 9.97, 9.97, 9.2, 8.23, 8.23, 8.23, 8.23, 7.27, 6.17, 5.52, 5.75, 5.0, 3.82, 4.32, 3.39, 4.8, 4.8, 6.95, 5.63, 4.6, 1.98, 0.0, 0.0, 6.91, 13.07, 16.38, 12.78, 11.06, 9.48, 8.4, 8.32, 6.74, 5.96, 5.14, 2.22, -13.41, 3.96, 7.51, 6.67, 10.37, 13.41, 14.03, 14.03, 12.79, 11.28, 12.07, 12.96, 12.83, 12.52, 12.52, -13.87, -13.87, -13.61, -13.28, -13.62, -13.62, -13.62, -13.29, -13.29, -12.96, -11.99, -11.99, -11.39, -11.39, -11.08, -12.13, -10.77, -10.11, -9.07, -7.7, -6.52, -6.48, -5.88, -4.81, -3.25, -3.65, -4.1, -4.38, -5.16, -5.33, -5.73, -3.73, -2.72, 0.0, 1.39, 4.8, 7.27, 8.38, 9.58, 10.41, 9.46, 9.75, 10.38, 10.38, 9.67, 7.59, 6.7, 9.2, 10.08, 10.08, 9.55, 9.55, 8.82, 8.82, 8.82, 8.03, 7.27, 6.98, 6.7, 5.2, 3.68, 2.28, 3.53, 6.95, 8.8, 8.05, 6.64, 4.05, 1.07, 1.58, 4.34, 8.61, 11.53, 12.2, 8.0, 5.56, 3.49, 2.87, 3.13, 3.92, 3.69, 2.16, 0.0, 0.0, 13.41, 10.73, 8.05, 7.19, 10.73, 13.41, 14.11, 13.41, 11.95, 11.53, 13.86, 14.3, 13.86, 13.86, -13.87, -13.87, -13.61, -13.61, -13.62, -13.62, -13.62, -13.62, -13.29, -12.96, -12.32, -11.99, -11.7, -11.39, -11.39, -10.77, -10.47, -10.13, -10.43, -9.12, -8.25, -7.03, -7.28, -7.32, -6.52, -6.15, -6.21, -7.44, -8.05, -8.1, -8.85, -6.44, -3.82, 0.0, 1.91, 3.98, 3.98, 6.44, 8.58, 8.82, 9.6, 9.32, 9.7, 9.77, 9.58, 8.22, 8.82, 10.08, 10.28, 9.83, 9.7, 9.75, 10.18, 10.6, 8.8, 8.34, 9.3, 7.59, 5.69, 3.19, 1.84, 2.6, 7.59, 10.41, 9.75, 9.2, 7.27, 5.54, 4.48, 4.24, 5.81, 7.3, 8.25, 6.66, 1.9, 0.0, -1.78, -2.0, 0.0, 1.54, 1.56, 1.83, 3.69, 6.0, 11.09, 13.41, 12.72, 9.17, 7.19, 10.73, 13.23, 13.41, 12.79, 12.79, 13.86, 15.2, 14.75, 14.75, -14.19, -13.87, -13.61, -13.61, -13.28, -13.28, -13.62, -13.62, -13.29, -13.29, -12.32, -11.99, -11.7, -11.39, -11.39, -11.1, -10.47, -10.13, -9.84, -10.83, -9.66, -8.72, -8.97, -8.72, -8.33, -6.95, -5.86, -5.36, -6.21, -8.22, -8.22, -3.68, 0.0, 0.0, 0.0, 2.19, 4.15, 6.44, 6.44, 8.94, 10.0, 10.27, 10.84, 11.84, 11.03, 11.09, 9.13, 10.28, 10.28, 10.28, 9.74, 9.89, 10.32, 10.75, 10.32, 9.2, 8.94, 7.9, 6.45, 1.84, 3.53, 10.0, 10.73, 10.84, 9.2, 8.38, 7.59, 7.02, 6.3, 5.33, 6.16, 5.8, 5.64, 0.0, -2.44, -4.79, -7.4, -5.14, 0.0, 1.51, 3.39, 3.39, 5.18, 6.0, 6.88, 8.38, 10.73, 13.15, 11.5, 6.7, 10.01, 12.45, 13.88, 13.01, 13.86, 14.75, 14.75, 14.75, -13.82, -14.19, -13.87, -13.61, -13.28, -13.28, -13.28, -13.62, -13.29, -12.96, -12.63, -11.99, -11.99, -11.7, -11.7, -11.39, -10.76, -10.47, -10.47, -10.13, -8.85, -8.08, -8.38, -8.78, -8.78, -7.64, -6.12, -4.55, -3.82, -3.32, -2.37, 0.0, 0.0, 0.0, 0.0, 2.19, 4.32, 4.32, 6.71, 8.94, 10.6, 11.06, 11.18, 12.07, 11.14, 10.41, 10.58, 9.83, 10.28, 10.28, 10.18, 10.62, 10.62, 10.75, 10.32, 10.27, 10.4, 10.41, 7.26, 4.8, 7.27, 10.73, 11.18, 10.38, 9.58, 8.73, 8.22, 7.02, 6.3, 7.32, 8.29, 11.54, 11.94, 0.0, -9.83, -11.2, -13.59, -11.27, 0.0, 2.28, 5.49, 5.23, 7.2, 7.54, 8.31, 8.59, 10.3, 11.9, 14.6, 6.7, 6.21, 9.48, 11.9, 13.57, 14.3, 14.3, 14.75, 14.75, -13.82, -13.82, -13.82, -13.87, -13.61, -13.28, -13.28, -13.28, -12.96, -12.96, -12.63, -11.99, -11.99, -11.7, -11.7, -11.39, -11.39, -10.77, -10.77, -10.13, -9.2, -7.53, -7.16, -7.48, -8.15, -8.42, -7.23, -5.38, -4.31, -3.44, -3.18, -2.82, -1.64, 0.0, 0.0, 0.0, 2.28, 4.32, 5.2, 6.97, 10.79, 11.62, 11.53, 11.4, 11.57, 11.18, 10.73, 9.26, 9.39, 10.28, 10.28, 10.62, 10.62, 11.06, 10.32, 10.32, 10.78, 12.18, 11.6, 8.05, 8.72, 10.08, 11.4, 10.79, 9.58, 8.73, 8.22, 7.15, 5.2, 6.63, 8.87, 11.64, 11.8, -0.0, -1.95, -3.49, -5.8, -10.75, 0.0, 7.4, 6.2, 7.76, 7.76, 9.09, 10.43, 9.8, 10.65, 12.42, 13.97, 13.97, 7.78, 4.24, 10.12, 14.3, 14.3, 14.3, 14.3, 14.3, -13.82, -13.82, -13.82, -13.51, -13.87, -13.61, -13.28, -13.28, -12.96, -12.96, -12.63, -11.99, -11.99, -11.99, -11.7, -11.39, -11.39, -11.39, -10.47, -10.47, -9.47, -8.81, -7.53, -6.92, -7.48, -8.05, -7.73, -7.23, -6.0, -4.7, -4.39, -3.55, -3.34, -2.71, -1.84, 0.0, 0.0, 2.19, 2.28, 5.2, 9.3, 11.62, 11.51, 10.88, 10.62, 10.7, 12.35, 11.02, 10.62, 11.18, 11.62, 11.18, 10.73, 10.65, 9.97, 9.89, 10.23, 11.88, 12.46, 10.4, 8.22, 8.63, 10.0, 11.03, 10.27, 10.48, 9.27, 7.82, 5.92, 5.92, 5.0, 2.05, 2.35, 0.0, 0.0, -0.0, -0.0, -0.0, 0.0, 10.75, 6.2, 7.93, 9.44, 10.12, 10.43, 10.43, 11.2, 12.0, 12.89, 13.65, 13.44, 13.41, 0.0, 13.86, 14.3, 14.3, 13.8, 13.8, -13.82, -13.82, -13.82, -13.82, -13.51, -13.51, -13.28, -13.28, -12.96, -12.96, -12.63, -12.29, -11.99, -11.99, -11.7, -11.39, -11.39, -11.39, -11.06, -10.47, -10.13, -9.47, -8.16, -7.53, -7.16, -7.04, -8.05, -8.05, -6.99, -6.0, -5.52, -4.81, -4.49, -3.34, -2.71, -1.76, 0.0, 0.0, 0.0, 2.28, 5.2, 10.4, 11.02, 9.7, 9.48, 9.1, 10.4, 10.18, 9.64, 9.68, 10.69, 12.52, 10.73, 10.73, 10.2, 10.2, 10.28, 9.83, 11.51, 11.5, 10.0, 8.4, 8.8, 10.18, 11.03, 11.03, 9.66, 8.53, 7.24, 3.68, 1.21, 0.0, 1.68, 3.24, 3.66, 1.71, 1.97, 3.79, 10.12, 13.41, 13.15, 11.88, 11.16, 11.64, 11.33, 11.2, 11.2, 11.8, 12.16, 11.06, 11.19, 8.18, 5.31, 13.19, 13.41, 13.86, 13.59, 13.59, -13.46, -13.46, -13.46, -13.82, -13.51, -13.51, -13.51, -13.2, -13.55, -13.24, -12.63, -12.63, -11.99, -11.99, -11.99, -11.7, -11.39, -11.39, -11.39, -10.47, -10.47, -10.13, -9.48, -8.18, -7.55, -7.44, -7.34, -7.34, -7.34, -7.04, -6.57, -5.8, -5.6, -4.64, -4.72, -2.71, -1.76, 0.0, 0.0, 0.0, 2.19, 5.2, 10.84, 10.38, 8.73, 8.58, 9.86, 9.75, 9.64, 9.68, 11.02, 11.02, 12.52, 12.07, 11.18, 10.73, 10.28, 9.83, 10.2, 11.18, 10.04, 10.04, 8.58, 9.42, 10.38, 10.8, 10.41, 9.42, 7.19, 4.65, 2.16, 0.0, 2.11, 3.97, 5.92, 4.58, 1.29, 0.0, 5.2, 10.4, 12.45, 13.86, 14.99, 12.74, 11.64, 12.73, 12.16, 11.8, 11.1, 10.1, 10.43, 9.17, 6.8, 12.02, 13.44, 13.96, 13.27, 13.27, -13.46, -13.46, -13.46, -13.82, -13.82, -13.51, -13.51, -13.2, -13.2, -12.9, -12.9, -12.9, -12.29, -11.99, -11.99, -11.7, -11.39, -11.39, -11.39, -11.08, -10.47, -10.13, -9.48, -8.83, -8.46, -7.83, -7.44, -7.34, -7.34, -7.34, -6.87, -6.63, -6.44, -5.99, -6.08, -5.2, -5.2, -3.07, -1.76, 0.0, 0.0, 0.0, 1.91, 10.73, 8.03, 7.9, 9.3, 9.4, 9.42, 9.64, 10.56, 11.02, 10.14, 10.25, 11.18, 10.73, 10.73, 10.28, 9.34, 9.85, 11.09, 10.21, 10.27, 10.35, 11.2, 9.67, 9.53, 7.96, 6.67, 4.43, 2.13, 1.03, 0.98, 2.11, 4.61, 6.25, 1.64, -2.78, -0.0, 6.95, 9.67, 11.6, 14.3, 12.3, 12.74, 12.51, 13.27, 11.77, 10.01, 9.06, 9.49, 9.73, 10.46, 11.7, 12.89, 12.5, 12.79, 12.79, -13.46, -13.46, -13.46, -13.82, -13.82, -13.51, -13.51, -13.2, -13.2, -13.2, -12.9, -12.9, -12.63, -12.63, -12.32, -11.99, -11.7, -11.39, -11.08, -11.08, -10.77, -10.42, -10.13, -9.49, -8.85, -8.2, -7.83, -7.16, -6.94, -7.09, -7.09, -6.7, -6.7, -6.53, -6.33, -5.86, -5.2, -3.92, -3.07, -1.76, 0.0, 0.0, 1.58, 0.0, 3.11, 7.59, 7.27, 9.2, 9.42, 10.08, 11.0, 10.56, 10.58, 10.14, 10.6, 11.62, 11.18, 10.73, 10.24, 9.92, 10.7, 10.38, 10.38, 10.99, 9.97, 10.19, 8.91, 6.44, 4.99, 3.14, 1.1, 0.0, 0.0, 0.0, 0.0, 0.0, 1.58, 0.0, -0.0, 2.49, 6.2, 9.46, 12.45, 12.52, 11.87, 12.74, 12.51, 11.88, 10.3, 9.71, 9.06, 9.77, 9.49, 11.29, 11.7, 12.35, 12.0, 12.0, -13.76, -13.76, -13.46, -13.46, -13.82, -13.51, -13.51, -13.51, -13.2, -13.2, -12.9, -12.9, -12.63, -12.63, -12.32, -11.99, -11.99, -11.39, -11.08, -11.08, -10.77, -10.47, -10.13, -9.49, -9.22, -8.86, -8.22, -7.57, -7.19, -6.8, -6.84, -6.7, -6.7, -6.53, -6.29, -6.09, -6.24, -5.43, -3.92, -2.95, -1.84, 0.0, 1.84, 4.48, 6.21, 9.75, 7.21, 8.43, 9.85, 10.08, 10.96, 10.56, 10.12, 10.14, 10.58, 10.58, 12.07, 11.62, 10.68, 11.0, 11.0, 10.7, 11.34, 11.2, 9.89, 9.17, 8.66, 6.44, 3.97, 1.91, 1.06, 0.0, 0.0, -0.96, -1.77, -2.14, 0.0, 1.6, 0.0, -0.0, 2.93, 6.58, 9.77, 11.21, 12.96, 13.23, 11.99, 11.33, 10.75, 10.01, 9.06, 8.72, 8.68, 9.47, 10.61, 10.61, 11.7, 11.7, -13.76, -13.76, -13.46, -13.46, -13.82, -13.51, -13.51, -13.51, -13.2, -13.2, -13.2, -12.9, -12.63, -12.63, -12.63, -11.99, -11.99, -11.7, -11.39, -11.08, -10.77, -10.47, -10.76, -10.13, -9.5, -8.86, -8.59, -8.22, -7.57, -6.94, -6.8, -6.4, -6.7, -6.76, -6.29, -6.62, -6.45, -5.35, -5.43, -4.23, -3.39, 0.0, 0.0, 4.8, 6.5, 8.22, 10.96, 9.4, 9.75, 10.91, 11.12, 10.23, 10.12, 10.12, 10.58, 10.58, 9.7, 11.18, 11.57, 11.13, 10.56, 10.7, 10.8, 9.52, 9.02, 8.85, 9.48, 9.31, 5.43, 2.83, 2.82, 4.24, 4.15, 2.11, 0.0, -2.38, -1.31, 0.0, 0.0, 0.0, -0.0, 1.55, 4.58, 8.85, 10.4, 14.3, 13.59, 11.17, 10.43, 8.85, 8.18, 7.0, 6.02, 8.4, 8.64, 9.36, 10.89, 10.89, -13.76, -13.76, -13.76, -13.46, -13.46, -13.51, -13.51, -13.51, -12.86, -12.86, -13.2, -12.94, -12.63, -12.63, -12.63, -11.99, -11.67, -11.7, -11.7, -11.7, -10.77, -10.76, -10.45, -10.13, -9.5, -9.21, -8.59, -8.22, -7.57, -6.92, -6.94, -6.8, -6.4, -6.7, -6.76, -6.04, -5.86, -5.63, -5.14, -4.36, -4.23, -1.76, 0.0, 2.1, 5.52, 9.66, 12.07, 10.65, 10.04, 10.91, 10.66, 10.23, 10.23, 10.68, 10.56, 10.58, 10.25, 11.62, 10.73, 11.13, 10.96, 10.79, 10.35, 8.69, 8.53, 8.22, 8.22, 9.17, 7.73, 5.46, 5.36, 6.41, 7.76, 8.68, 3.45, 0.0, -1.18, -1.13, 0.0, 1.4, 0.0, -0.0, -0.0, 3.68, 5.15, 7.93, 13.57, 12.79, 7.93, 6.6, 4.24, 4.24, 4.0, 4.12, 7.0, 7.71, 8.13, 8.13, -13.39, -13.39, -13.76, -13.46, -13.46, -13.46, -13.16, -13.16, -13.16, -12.86, -12.6, -12.94, -12.94, -12.63, -12.63, -12.29, -11.67, -11.38, -11.7, -11.38, -10.76, -10.76, -10.45, -10.13, -9.84, -9.5, -8.87, -8.59, -9.11, -7.6, -7.59, -6.94, -6.8, -6.84, -6.7, -6.29, -6.04, -5.86, -5.41, -5.52, -4.6, -2.95, -1.76, 0.0, 3.98, 7.9, 10.38, 10.73, 10.65, 11.11, 10.66, 10.28, 10.73, 10.73, 10.28, 10.14, 11.14, 11.18, 10.73, 10.25, 11.84, 10.79, 9.17, 8.35, 8.22, 7.36, 7.27, 7.44, 8.01, 7.02, 6.31, 6.15, 6.73, 7.22, 7.05, 2.17, 0.0, 0.0, 1.15, 3.75, 6.16, 6.11, 13.99, -0.0, -0.0, 3.69, 7.0, 13.19, 7.36, 3.01, 1.38, 1.42, 1.47, 2.98, 5.19, 5.35, 6.66, 6.66, -13.39, -13.39, -13.39, -13.46, -13.46, -13.46, -13.16, -13.16, -13.16, -12.92, -12.6, -12.6, -12.94, -12.94, -12.63, -12.29, -12.29, -11.68, -11.38, -11.38, -10.76, -10.76, -10.45, -9.84, -10.13, -9.5, -9.21, -8.59, -8.24, -8.84, -7.61, -7.6, -6.96, -6.56, -6.4, -6.45, -6.29, -6.04, -5.86, -5.41, -4.6, -3.77, -2.95, 0.0, 0.0, 2.1, 5.95, 10.08, 10.73, 10.66, 10.28, 10.28, 11.18, 10.73, 10.28, 10.73, 10.69, 10.73, 10.25, 10.7, 10.41, 9.38, 9.46, 8.07, 8.41, 8.41, 7.59, 6.77, 6.45, 6.43, 6.92, 5.35, 3.68, 2.8, 5.04, 4.43, 3.38, 3.19, 4.24, 5.31, 5.65, 5.96, 5.56, 4.54, -0.0, -0.0, -0.0, 0.0, 2.35, 1.66, 0.0, 0.0, 0.0, 0.0, 1.58, 4.81, 5.64, 5.64, -13.39, -13.39, -13.39, -13.1, -13.46, -13.46, -13.16, -13.16, -12.92, -12.92, -12.6, -12.6, -12.6, -12.94, -12.29, -12.29, -11.68, -11.68, -11.38, -11.06, -10.76, -10.45, -10.45, -10.13, -10.13, -9.5, -9.21, -8.87, -8.87, -7.59, -7.33, -7.61, -7.61, -7.24, -6.84, -6.45, -6.45, -5.98, -6.04, -5.32, -4.8, -4.6, -3.77, -1.52, 0.0, 0.0, 2.02, 7.27, 10.73, 10.73, 10.73, 11.18, 10.73, 10.24, 10.24, 10.25, 10.28, 9.83, 10.28, 10.7, 12.14, 10.46, 9.7, 8.59, 8.23, 8.07, 8.07, 7.06, 7.44, 7.28, 7.18, 5.6, 3.96, 1.01, 2.48, 6.01, 5.65, 4.95, 4.31, 3.83, 2.8, 3.05, 3.24, 2.58, 0.0, -11.38, -8.93, -10.75, 0.0, 0.0, 0.0, 0.0, 0.0, 0.0, 0.0, 3.2, 4.81, 4.81, -13.39, -13.39, -13.39, -13.1, -13.1, -13.46, -13.46, -12.92, -12.92, -12.92, -12.92, -12.6, -12.6, -12.94, -12.6, -12.6, -11.68, -11.68, -11.68, -11.38, -10.76, -10.45, -10.45, -10.13, -9.82, -9.5, -9.21, -8.87, -8.87, -8.22, -7.59, -6.96, -6.97, -7.26, -6.97, -6.58, -6.16, -6.45, -5.75, -5.26, -5.09, -4.6, -3.82, -2.33, -1.28, 0.0, 0.0, 4.6, 10.08, 10.73, 10.73, 11.18, 10.68, 10.12, 10.58, 10.14, 9.72, 9.81, 9.81, 10.26, 9.74, 10.88, 9.32, 9.09, 9.09, 8.59, 8.07, 7.36, 6.86, 7.41, 7.36, 7.34, 5.31, 2.88, 3.42, 4.65, 5.23, 4.66, 2.79, 1.05, 0.0, 0.0, -1.11, 0.0, 0.0, -14.75, -14.75, -6.6, -1.9, 0.0, 0.0, 0.0, 0.0, 0.0, 0.0, 0.0, 3.58, 3.58, -13.02, -13.02, -13.39, -13.39, -13.1, -13.1, -13.23, -12.92, -12.92, -12.92, -12.92, -12.6, -12.6, -12.6, -12.6, -12.33, -11.68, -11.68, -11.68, -11.38, -10.76, -10.45, -10.44, -10.13, -9.82, -9.5, -9.21, -9.21, -8.87, -8.87, -7.96, -6.94, -6.96, -6.71, -6.98, -6.98, -6.33, -5.92, -5.75, -5.75, -5.05, -4.8, -3.95, -3.36, -2.83, -2.13, -2.39, 0.0, 8.23, 10.73, 10.73, 10.68, 10.08, 10.56, 9.92, 9.54, 9.58, 9.58, 9.62, 10.26, 10.19, 8.42, 9.32, 8.55, 8.12, 7.9, 7.27, 7.06, 7.36, 7.36, 7.54, 8.1, 6.47, 5.07, 3.34, 2.16, 3.03, 3.23, 1.19, 0.0, -1.2, -2.28, -2.92, -3.14, -2.4, -4.55, -5.8, -3.96, 0.0, 0.0, 2.13, 4.1, 2.13, 0.0, 0.0, 2.54, 4.38, 4.38, -13.02, -13.02, -13.39, -13.39, -13.1, -12.87, -13.23, -13.23, -12.92, -12.92, -12.92, -12.92, -12.65, -12.33, -12.33, -12.33, -11.99, -11.68, -11.68, -11.38, -11.06, -10.75, -10.44, -10.13, -9.82, -9.5, -9.5, -9.21, -8.87, -8.87, -8.23, -7.59, -6.94, -6.31, -6.33, -6.71, -6.61, -6.33, -6.2, -5.75, -5.05, -5.05, -4.05, -4.15, -3.49, -3.99, -4.6, -3.25, 2.49, 10.18, 10.66, 10.52, 9.85, 10.35, 9.49, 9.54, 9.4, 8.97, 9.62, 9.75, 9.75, 9.07, 8.93, 8.18, 8.47, 8.59, 7.47, 7.74, 8.07, 7.59, 7.14, 8.1, 7.0, 7.22, 5.93, 2.36, 0.92, 0.0, 0.0, 0.0, 0.0, -2.21, -3.02, -3.82, -3.18, -3.73, -3.25, -1.83, 0.0, 2.13, 4.1, 3.68, 3.68, 2.2, 2.54, 4.81, 6.9, 6.9, -13.02, -13.02, -13.02, -13.39, -12.87, -12.87, -12.87, -12.87, -13.23, -12.92, -12.92, -12.31, -12.31, -11.99, -12.33, -11.99, -11.99, -11.99, -11.68, -11.38, -11.06, -11.06, -10.44, -10.13, -9.82, -9.82, -9.5, -9.5, -8.87, -8.87, -8.23, -7.96, -7.59, -6.94, -6.56, -6.58, -6.33, -6.61, -6.2, -5.95, -5.26, -5.05, -4.35, -3.97, -3.11, -3.36, -4.99, -5.1, 0.0, 8.93, 9.75, 9.75, 9.55, 9.55, 9.24, 8.91, 8.91, 8.97, 9.03, 9.64, 9.75, 9.21, 9.6, 7.81, 7.87, 8.93, 9.32, 8.12, 8.07, 7.9, 7.9, 7.54, 7.16, 7.42, 9.37, 6.8, 2.09, 0.0, 0.0, 0.0, -1.21, -1.17, -2.72, -3.2, -1.72, 0.0, 0.0, 0.0, 1.9, 1.9, 1.9, 1.66, 3.25, 4.24, 4.24, 4.1, 6.9, 6.9, -13.02, -13.02, -13.02, -13.02, -13.18, -12.87, -12.87, -12.87, -12.87, -12.31, -12.31, -12.31, -12.65, -12.65, -12.33, -12.33, -12.33, -11.99, -11.99, -11.06, -11.06, -10.44, -10.44, -10.13, -9.82, -9.82, -9.5, -9.5, -8.87, -8.87, -8.23, -8.23, -7.59, -7.59, -6.94, -6.56, -6.07, -6.33, -6.2, -5.95, -5.26, -5.04, -4.84, -3.65, -2.82, -3.11, -4.8, -4.8, 0.0, 7.27, 8.34, 8.6, 8.21, 8.4, 8.4, 8.55, 8.25, 8.34, 9.03, 9.21, 9.64, 9.21, 7.01, 8.54, 8.93, 8.93, 8.18, 7.74, 8.07, 7.9, 7.36, 6.45, 6.2, 7.0, 9.91, 13.6, 8.97, 2.45, 0.0, 0.0, 0.0, 2.91, 4.71, 5.28, 6.43, 6.2, 6.4, 5.18, 3.47, 3.36, 3.36, 1.53, 1.72, 1.96, 2.2, 4.24, 4.81, 6.9, -13.02, -13.02, -12.82, -12.82, -12.82, -12.52, -12.87, -12.87, -12.63, -12.63, -12.31, -12.65, -12.65, -12.65, -12.33, -12.33, -12.33, -11.99, -11.7, -11.06, -10.75, -10.44, -10.13, -10.13, -9.82, -9.5, -9.5, -9.5, -8.87, -8.87, -8.59, -8.23, -8.23, -7.59, -7.19, -6.53, -6.29, -6.31, -6.33, -5.69, -5.69, -5.29, -4.84, -4.35, -3.11, -2.71, -1.69, -1.02, 1.93, 5.46, 6.18, 6.64, 7.51, 7.44, 7.67, 7.85, 7.84, 8.34, 8.6, 9.18, 9.21, 9.18, 10.41, 9.04, 9.04, 8.93, 7.87, 8.24, 7.27, 7.36, 7.14, 6.45, 6.43, 6.2, 8.05, 11.41, 17.22, 12.83, 6.2, 6.3, 8.18, 8.46, 7.95, 7.69, 7.2, 6.64, 5.92, 5.04, 4.24, 2.81, 2.81, 1.58, 1.53, 1.72, 1.9, 2.13, 4.81, 4.81, -12.82, -12.82, -12.82, -12.82, -12.82, -12.82, -12.87, -12.63, -12.63, -12.63, -12.65, -12.65, -12.65, -12.65, -12.65, -12.33, -12.33, -11.7, -11.7, -11.37, -10.75, -10.75, -10.13, -10.13, -10.13, -9.8, -9.8, -9.21, -8.87, -8.87, -8.87, -8.23, -8.23, -7.59, -7.59, -6.94, -6.53, -6.29, -6.31, -5.92, -5.69, -5.52, -4.84, -4.84, -3.98, -2.6, -0.68, 0.0, 2.11, 3.61, 4.2, 4.96, 6.32, 6.73, 6.7, 6.96, 7.2, 7.71, 8.34, 8.6, 9.18, 8.74, 8.12, 9.04, 9.04, 8.54, 7.9, 7.27, 7.27, 6.86, 6.45, 5.43, 5.11, 5.6, 6.6, 7.2, 11.11, 15.9, 14.28, 10.12, 9.66, 9.2, 8.41, 7.76, 6.0, 5.33, 4.38, 3.47, 2.64, 2.56, 1.42, 1.42, 1.53, 1.66, 2.13, 4.81, 4.81, 4.81, -12.74, -12.74, -12.82, -12.82, -12.82, -12.82, -12.63, -12.63, -12.63, -12.63, -12.65, -12.65, -12.65, -12.65, -12.65, -12.36, -11.7, -11.7, -11.7, -11.05, -10.75, -10.43, -10.13, -10.13, -9.8, -9.8, -9.8, -9.21, -8.87, -8.87, -8.87, -8.23, -8.23, -7.59, -7.59, -7.19, -6.92, -6.27, -6.29, -5.89, -5.92, -5.52, -5.05, -4.54, -3.98, -3.53, -1.33, 0.0, 0.62, 1.36, 2.35, 3.32, 4.96, 5.89, 6.7, 6.96, 6.95, 7.2, 7.93, 8.6, 8.6, 8.6, 8.71, 10.41, 9.04, 7.56, 7.9, 7.59, 6.77, 6.2, 5.43, 5.21, 5.2, 5.36, 5.55, 5.46, 7.17, 10.6, 14.37, 13.24, 11.29, 10.6, 8.38, 6.44, 4.66, 2.9, 2.18, 1.19, 0.0, 0.0, 0.0, 0.0, 0.0, 1.9, 2.54, 2.54, 2.54, 2.54, -12.74, -12.74, -12.45, -12.82, -12.82, -12.6, -12.6, -12.28, -12.63, -12.63, -12.63, -12.03, -12.36, -12.03, -12.03, -12.03, -12.03, -11.69, -11.37, -11.05, -10.72, -10.13, -10.13, -10.13, -9.8, -9.5, -9.5, -9.21, -8.87, -8.87, -8.87, -8.23, -8.23, -7.85, -7.59, -7.32, -7.32, -6.92, -6.53, -6.29, -5.67, -5.26, -5.05, -4.54, -3.98, -3.39, -2.76, -1.36, 0.0, 0.0, 1.54, 2.47, 4.0, 5.49, 6.32, 6.96, 7.17, 6.95, 7.31, 8.12, 8.17, 8.55, 8.71, 8.12, 9.6, 7.56, 6.3, 6.64, 6.77, 6.44, 6.45, 6.17, 6.2, 5.6, 5.55, 5.5, 6.34, 6.98, 9.26, 11.8, 13.89, 12.25, 9.4, 5.3, 3.13, 1.01, 0.0, 0.0, 0.0, 0.0, 0.0, 0.0, 0.0, 0.0, 0.0, 0.0, 0.0, 0.0, -12.74, -12.74, -12.74, -12.45, -12.6, -12.24, -12.6, -12.28, -12.28, -12.36, -12.36, -12.03, -12.03, -12.03, -12.03, -11.69, -11.69, -11.69, -11.05, -11.05, -11.05, -10.43, -10.13, -9.8, -9.5, -9.5, -9.21, -8.87, -8.87, -8.87, -8.59, -8.23, -8.23, -8.23, -7.96, -7.57, -7.57, -7.32, -6.94, -6.29, -5.89, -5.48, -5.0, -4.54, -3.98, -3.39, -2.76, -2.02, -0.73, 0.0, 0.75, 2.47, 3.49, 4.6, 5.49, 6.63, 6.96, 6.79, 7.2, 7.51, 8.12, 8.12, 8.55, 8.97, 8.12, 7.9, 6.95, 6.79, 6.95, 6.77, 6.17, 6.44, 6.45, 5.6, 5.55, 5.33, 5.11, 4.8, 6.28, 8.6, 11.4, 11.97, 9.05, 5.22, 2.5, 0.0, -1.18, -2.45, -2.56, -1.96, -2.2, -1.71, 0.0, 0.0, 0.0, 0.0, 0.0, 0.0, -12.54, -12.54, -12.54, -12.24, -12.24, -12.24, -12.24, -12.28, -12.02, -12.02, -12.02, -12.02, -11.69, -11.69, -11.69, -11.69, -11.69, -11.36, -11.05, -11.05, -10.75, -10.43, -10.12, -9.8, -9.21, -9.21, -9.21, -8.87, -8.87, -8.87, -8.59, -8.23, -8.51, -8.22, -8.22, -8.22, -7.96, -7.59, -6.94, -6.56, -5.89, -5.23, -5.0, -4.48, -3.98, -3.39, -2.76, -2.02, -1.45, 0.0, 0.0, 1.54, 3.21, 4.0, 5.64, 6.35, 6.63, 6.79, 7.2, 7.51, 7.69, 8.12, 8.12, 8.55, 8.34, 8.18, 7.81, 7.81, 7.56, 6.95, 6.77, 6.2, 5.2, 5.6, 4.43, 4.24, 4.21, 4.81, 5.98, 6.99, 7.99, 10.06, 10.53, 7.06, 2.88, 0.0, -2.07, -4.34, -4.74, -4.55, -3.04, -1.77, -1.98, 0.0, 0.0, 0.0, 0.0, 0.0, -12.54, -12.54, -12.54, -12.17, -12.24, -12.24, -12.24, -12.0, -11.68, -12.02, -12.02, -12.02, -11.69, -11.69, -11.69, -11.36, -11.36, -11.07, -10.75, -10.75, -10.43, -10.43, -10.12, -9.8, -9.21, -9.21, -9.21, -8.87, -8.87, -8.87, -8.87, -8.87, -8.59, -8.86, -8.86, -8.22, -7.96, -7.59, -6.94, -6.31, -5.67, -5.48, -5.0, -4.48, -3.92, -3.77, -3.39, -2.02, -1.36, -0.73, 0.0, 0.75, 2.28, 3.06, 5.49, 5.64, 6.35, 6.28, 6.79, 7.43, 7.01, 7.63, 8.24, 8.71, 8.55, 8.93, 8.93, 8.54, 7.56, 6.48, 5.7, 5.21, 5.2, 4.48, 4.28, 4.24, 5.33, 5.99, 6.6, 7.76, 6.63, 8.17, 10.71, 10.21, 3.33, 0.0, -2.5, -4.43, -7.19, -6.63, -4.93, -3.82, -2.28, 0.0, 0.0, 0.0, 0.0, 0.0, -12.17, -12.17, -12.17, -12.17, -11.88, -11.88, -11.64, -12.0, -11.68, -11.68, -11.68, -11.68, -11.68, -11.07, -11.07, -11.07, -11.07, -11.07, -11.07, -10.43, -10.43, -10.12, -10.12, -9.8, -9.5, -9.5, -9.5, -9.16, -9.16, -9.16, -9.16, -8.86, -8.86, -8.86, -8.86, -8.59, -7.96, -7.59, -6.96, -6.31, -5.92, -5.48, -5.0, -4.48, -4.48, -3.92, -3.2, -2.76, -2.02, -0.73, 0.0, 0.75, 1.54, 3.06, 5.13, 5.64, 6.01, 6.28, 6.79, 7.43, 7.43, 7.21, 7.81, 8.24, 8.24, 8.3, 8.8, 8.43, 7.41, 7.4, 6.48, 6.17, 4.15, 4.48, 4.65, 5.36, 6.0, 6.76, 7.5, 7.32, 6.62, 6.63, 9.0, 9.53, 7.61, 2.61, 0.0, -3.82, -8.22, -8.85, -8.53, -5.2, 0.0, 0.0, 0.0, 0.0, 0.0, 0.0, -12.17, -12.17, -12.17, -12.17, -11.88, -11.64, -11.64, -11.64, -11.33, -11.68, -11.68, -11.68, -11.4, -11.07, -11.07, -11.39, -11.07, -11.07, -10.74, -10.74, -10.12, -10.12, -10.12, -9.8, -9.5, -9.5, -9.5, -9.16, -9.16, -9.16, -9.14, -9.5, -9.5, -8.86, -8.86, -8.59, -8.23, -7.6, -6.96, -6.58, -5.92, -5.48, -5.48, -5.0, -4.48, -3.92, -3.2, -2.76, -2.02, -1.45, 0.0, 0.0, 0.72, 3.7, 4.6, 4.87, 5.64, 6.01, 6.79, 7.06, 7.33, 6.92, 7.14, 7.76, 7.92, 8.48, 8.4, 8.8, 8.82, 8.06, 6.95, 6.48, 5.21, 4.54, 5.4, 6.44, 6.96, 6.96, 6.98, 6.99, 5.81, 5.81, 5.81, 6.25, 8.02, 16.79, 13.57, 0.0, -7.59, -9.3, -11.03, -8.22, -3.53, 0.0, 0.0, 0.0, 0.0, 0.0, -12.17, -11.81, -11.81, -11.6, -11.6, -11.29, -11.29, -11.64, -11.64, -11.33, -11.06, -11.06, -11.4, -11.73, -11.39, -11.07, -11.07, -10.74, -10.74, -10.42, -10.12, -9.8, -9.8, -9.8, -9.5, -9.5, -9.5, -9.5, -9.5, -9.5, -9.5, -9.5, -9.5, -8.86, -8.59, -8.23, -7.59, -6.96, -6.7, -6.33, -5.92, -5.48, -5.48, -5.0, -4.48, -4.48, -3.77, -2.76, -2.1, -1.36, -0.73, 0.0, 0.75, 2.83, 3.7, 4.37, 5.21, 6.01, 6.59, 7.06, 7.33, 6.8, 7.14, 7.33, 7.48, 6.85, 8.91, 8.99, 8.8, 8.42, 7.68, 7.27, 6.77, 6.48, 6.2, 7.14, 7.18, 6.96, 6.0, 4.97, 4.81, 4.81, 4.52, 4.12, 16.36, 14.54, 11.38, 12.07, 0.0, -4.8, -10.0, -10.0, -8.22, -3.53, -2.6, -1.93, -1.93, -1.93, -11.6, -11.6, -11.23, -11.23, -11.23, -11.6, -11.29, -11.29, -11.29, -11.06, -11.4, -11.4, -11.73, -11.4, -11.07, -11.07, -10.74, -10.74, -10.42, -10.42, -10.12, -9.8, -9.5, -9.8, -9.5, -9.5, -9.5, -9.5, -9.5, -9.5, -9.5, -9.5, -9.21, -8.59, -8.59, -7.96, -7.6, -6.7, -6.58, -6.33, -5.92, -5.67, -5.23, -5.23, -5.0, -4.48, -3.77, -3.39, -2.76, -1.36, -0.73, 0.0, 0.0, 2.17, 3.06, 4.37, 4.87, 6.01, 6.59, 6.9, 6.52, 6.8, 7.06, 7.28, 7.45, 7.45, 9.11, 9.11, 8.6, 7.81, 7.76, 7.27, 6.83, 7.27, 6.77, 7.36, 7.41, 5.99, 5.36, 4.1, 3.94, 4.97, 3.8, 6.13, 12.39, 6.22, -0.0, -0.0, 0.0, 0.0, -5.0, -5.0, -5.2, -6.45, -4.8, -2.49, -2.49, -2.49, -11.23, -11.23, -11.23, -11.23, -11.23, -11.23, -11.6, -11.29, -11.39, -11.73, -11.4, -11.4, -11.4, -11.4, -11.07, -10.74, -10.74, -10.74, -10.12, -10.12, -9.8, -9.8, -9.8, -9.8, -9.5, -9.8, -9.84, -9.84, -9.84, -9.5, -9.5, -9.21, -8.59, -8.59, -8.24, -7.6, -6.96, -6.97, -6.58, -6.07, -5.67, -5.67, -5.23, -5.23, -5.0, -4.48, -3.92, -3.39, -2.76, -2.02, -1.36, -0.7, 0.72, 2.17, 3.06, 3.51, 4.37, 5.64, 6.35, 6.7, 6.32, 6.64, 6.94, 7.21, 7.21, 7.42, 7.37, 6.99, 8.93, 8.23, 7.27, 6.77, 6.83, 6.83, 6.31, 7.06, 6.45, 5.78, 5.18, 4.28, 4.1, 4.08, 4.45, 8.34, 12.0, -0.0, -0.0, -0.0, -12.07, -8.22, 0.0, 0.0, 0.0, 0.0, 0.0, 0.0, 0.0, 0.0, -10.87, -10.87, -11.23, -11.23, -11.23, -11.6, -11.6, -11.39, -11.39, -11.39, -11.39, -11.4, -11.06, -11.06, -10.74, -10.43, -10.43, -10.43, -10.43, -10.12, -10.11, -10.11, -10.11, -10.11, -10.13, -10.13, -10.13, -10.13, -9.84, -9.5, -9.21, -8.86, -8.87, -7.96, -7.6, -7.33, -6.97, -6.97, -6.58, -6.31, -6.31, -5.67, -5.67, -5.23, -5.0, -4.48, -3.92, -3.39, -2.76, -2.1, -1.36, -0.73, 0.72, 1.54, 2.35, 2.9, 3.8, 5.21, 6.06, 6.7, 6.7, 6.64, 6.64, 6.94, 7.63, 7.53, 7.4, 7.4, 8.93, 8.15, 7.06, 7.06, 7.06, 6.31, 6.04, 5.46, 5.95, 5.2, 4.28, 4.28, 4.28, 5.16, 5.94, 9.28, 0.0, -0.0, -0.0, -0.0, -0.0, -11.18, 0.0, 0.0, 0.0, 0.0, 0.0, 0.0, 0.0, 0.0, -10.87, -10.87, -11.23, -11.23, -11.6, -11.36, -11.36, -11.36, -11.39, -11.39, -11.39, -11.06, -11.06, -10.76, -10.43, -10.43, -10.43, -10.43, -10.43, -10.43, -10.11, -10.11, -10.11, -10.44, -10.44, -10.44, -10.13, -9.84, -9.84, -9.5, -8.86, -8.87, -8.23, -7.87, -7.6, -7.24, -6.97, -6.97, -6.58, -6.31, -6.31, -5.89, -5.67, -5.02, -4.8, -4.8, -4.3, -3.98, -3.39, -2.76, -2.02, -0.73, 0.0, 0.78, 2.17, 3.06, 3.8, 4.71, 6.06, 6.44, 6.44, 6.44, 6.82, 7.2, 7.2, 7.2, 7.37, 7.95, 7.6, 7.59, 7.59, 7.59, 7.06, 6.77, 5.7, 4.99, 4.18, 4.15, 3.97, 4.12, 4.28, 5.5, 6.01, 5.77, 0.0, -5.96, -0.0, -0.0, -7.9, -11.18, -11.62, 0.0, 0.0, 0.0, 0.0, 0.0, 0.0, 0.0, -10.87, -10.87, -11.01, -11.01, -11.01, -11.01, -11.01, -11.01, -11.04, -11.04, -11.04, -10.44, -10.76, -10.76, -10.43, -10.43, -10.43, -10.75, -10.75, -10.75, -10.42, -10.42, -10.42, -10.44, -10.44, -10.44, -10.13, -9.84, -9.5, -9.21, -8.87, -8.23, -7.96, -7.6, -7.33, -7.24, -7.24, -6.97, -6.97, -6.31, -6.31, -5.89, -5.67, -5.02, -5.26, -4.8, -4.3, -3.98, -3.39, -2.76, -2.02, -0.7, 0.0, 0.78, 1.47, 2.35, 2.9, 4.71, 6.01, 6.06, 6.11, 6.11, 6.55, 6.82, 6.99, 7.37, 7.37, 7.37, 6.91, 8.37, 8.37, 8.58, 7.27, 6.48, 6.04, 5.46, 4.78, 2.95, 3.08, 3.34, 4.43, 4.38, 3.52, 3.77, 2.15, -27.72, -7.14, -4.81, -7.9, -10.0, -11.62, -10.4, -3.82, -2.82, 0.0, 0.0, 0.0, 0.0, -10.96, -10.96, -10.65, -10.65, -10.65, -10.65, -11.01, -10.76, -10.43, -10.43, -10.77, -11.1, -10.76, -10.76, -10.75, -10.75, -10.75, -10.75, -10.75, -10.42, -10.42, -10.42, -10.42, -10.44, -10.13, -10.44, -10.13, -9.84, -9.21, -9.5, -8.87, -8.23, -8.24, -7.6, -7.33, -6.96, -7.24, -6.97, -6.97, -6.31, -6.31, -5.89, -5.67, -5.23, -5.26, -4.8, -4.3, -3.98, -3.39, -2.76, -2.02, -0.7, 0.0, 0.0, 0.74, 1.47, 2.23, 4.12, 6.01, 6.01, 5.69, 5.69, 6.11, 6.91, 6.91, 6.52, 6.87, 7.28, 7.76, 9.45, 8.93, 7.81, 6.95, 6.18, 6.18, 5.21, 4.56, 3.81, 3.25, 4.32, 4.28, 3.25, 2.24, 1.16, 0.0, -3.06, -19.67, -7.0, -6.94, -11.03, -11.62, -11.03, -8.53, -6.7, -6.45, -3.68, -3.68, -3.68, -10.59, -10.59, -10.59, -10.3, -10.41, -10.41, -10.41, -10.76, -10.43, -10.77, -10.77, -11.1, -10.76, -11.09, -10.75, -10.75, -10.75, -10.75, -10.75, -10.42, -10.42, -10.11, -10.42, -10.44, -10.13, -10.13, -10.13, -9.5, -9.5, -9.21, -8.87, -8.23, -8.24, -7.6, -7.33, -6.96, -7.24, -6.97, -6.7, -6.31, -6.31, -6.31, -5.67, -5.02, -5.26, -4.8, -4.3, -3.98, -3.98, -3.39, -2.65, -1.39, -0.75, 0.0, 0.74, 0.74, 1.52, 3.45, 5.1, 5.53, 5.53, 5.53, 5.53, 6.01, 6.01, 6.52, 6.87, 6.87, 7.76, 8.22, 7.64, 7.9, 6.69, 6.11, 5.63, 4.56, 4.56, 3.65, 2.95, 3.34, 3.29, 2.2, 1.05, 1.03, 0.0, 0.0, -2.44, -11.38, -10.12, -12.72, -12.52, -12.07, -10.41, -7.19, -6.7, -6.7, -6.7, -6.7, -10.59, -10.59, -10.37, -10.06, -10.06, -10.41, -10.41, -10.76, -10.43, -10.77, -10.77, -11.1, -10.76, -11.09, -11.09, -10.75, -10.75, -10.75, -10.42, -10.42, -10.11, -10.11, -10.1, -10.44, -10.13, -9.8, -9.5, -9.5, -9.21, -8.87, -8.59, -8.24, -8.24, -7.6, -7.33, -6.96, -6.96, -6.7, -6.7, -6.31, -6.31, -6.31, -5.67, -5.69, -5.26, -4.8, -4.3, -4.3, -3.98, -3.39, -2.65, -1.39, -0.75, 0.0, 0.0, 0.74, 1.6, 3.15, 4.5, 5.1, 5.1, 5.1, 5.1, 5.53, 4.94, 5.44, 5.72, 6.32, 6.87, 7.44, 7.21, 7.9, 7.27, 5.95, 4.2, 3.99, 3.65, 2.83, 2.95, 2.1, 2.16, 2.13, 1.1, 1.04, 1.23, 1.73, 0.0, 0.0, -2.81, -12.39, -12.52, -12.52, -12.07, -11.87, -10.41, -8.53, -8.53, -8.53, -10.37, -10.37, -10.37, -10.06, -10.06, -10.41, -10.41, -10.76, -10.43, -10.46, -10.46, -10.78, -10.43, -10.43, -10.43, -10.09, -10.09, -10.43, -10.11, -10.11, -10.11, -9.8, -9.8, -9.8, -9.8, -9.5, -9.5, -9.21, -9.21, -8.87, -8.87, -8.24, -8.24, -7.6, -7.33, -6.96, -6.96, -6.96, -6.7, -6.31, -6.31, -6.33, -5.92, -5.69, -5.26, -4.8, -4.3, -4.3, -3.98, -3.25, -2.82, -2.06, -1.5, 0.0, 0.0, 0.0, 0.74, 2.57, 3.63, 4.5, 4.12, 4.12, 4.12, 4.5, 4.5, 4.5, 5.2, 5.2, 6.32, 6.87, 7.21, 7.13, 6.11, 3.68, 2.97, 2.83, 2.83, 2.83, 2.02, 1.92, 1.05, 1.08, 1.06, 0.98, 1.17, 3.11, 1.72, 1.44, 0.0, 0.0, -3.36, -9.48, -12.58, -12.14, -12.14, -11.2, -11.2, -11.2, -10.37, -10.37, -10.37, -10.06, -10.06, -10.41, -10.41, -10.76, -10.43, -10.46, -10.46, -10.78, -10.43, -10.43, -10.43, -10.09, -10.09, -10.43, -10.11, -10.11, -10.11, -9.8, -9.8, -9.8, -9.8, -9.5, -9.5, -9.21, -9.21, -8.87, -8.87, -8.24, -8.24, -7.6, -7.33, -6.96, -6.96, -6.96, -6.7, -6.31, -6.31, -6.33, -5.92, -5.69, -5.26, -4.8, -4.3, -4.3, -3.98, -3.25, -2.82, -2.06, -1.5, 0.0, 0.0, 0.0, 0.74, 2.57, 3.63, 4.5, 4.12, 4.12, 4.12, 4.5, 4.5, 4.5, 5.2, 5.2, 6.32, 6.87, 7.21, 7.13, 6.11, 3.68, 2.97, 2.83, 2.83, 2.83, 2.02, 1.92, 1.05, 1.04, 1.03, 1.02, 2.13, 2.5, 4.65, 2.97, 2.92, 1.34, 1.38, 0.0, -2.28, -4.98, -7.51, -8.53, -8.53, -8.53]}]